Wetterdaten: Freitag, 18.04.2014
Datum Zeit Temp. Aussen +5cm Feuchte Auss Luftdruck Regen Sonnenschein Regendauer UV Solar Windben
18.04.2014 00:00 11,7 C 10,6 C 74 % 1012,9 hPa 0,0 l/m 0 min 0 min 0,0 UV-I 0 W/m 20,6 km/h (4 Bft)
18.04.2014 00:02 11,6 C 10,6 C 74 % 1013,0 hPa 0,0 l/m 0 min 0 min 0,0 UV-I 0 W/m 20,6 km/h (4 Bft)
18.04.2014 00:06 11,6 C 10,0 C 75 % 1013,0 hPa 0,0 l/m 0 min 2 min 0,0 UV-I 0 W/m 0,0 km/h (0 Bft)
18.04.2014 00:08 11,5 C 10,0 C 75 % 1012,9 hPa 0,0 l/m 0 min 2 min 0,0 UV-I 0 W/m 12,9 km/h (3 Bft)
18.04.2014 00:10 11,5 C 10,0 C 76 % 1013,0 hPa 0,0 l/m 0 min 2 min 0,0 UV-I 0 W/m 5,1 km/h (1 Bft)
18.04.2014 00:12 11,4 C 9,4 C 76 % 1013,0 hPa 0,0 l/m 0 min 2 min 0,0 UV-I 0 W/m 10,3 km/h (2 Bft)
18.04.2014 00:14 11,3 C 9,4 C 77 % 1013,0 hPa 0,0 l/m 0 min 2 min 0,0 UV-I 0 W/m 12,9 km/h (3 Bft)
18.04.2014 00:16 11,3 C 9,4 C 78 % 1013,0 hPa 0,0 l/m 0 min 2 min 0,0 UV-I 0 W/m 18,0 km/h (3 Bft)
18.04.2014 00:18 11,2 C 9,4 C 79 % 1013,1 hPa 0,0 l/m 0 min 2 min 0,0 UV-I 0 W/m 2,6 km/h (1 Bft)
18.04.2014 00:20 11,1 C 9,4 C 79 % 1013,1 hPa 0,0 l/m 0 min 0 min 0,0 UV-I 0 W/m 18,0 km/h (3 Bft)
18.04.2014 00:22 11,0 C 9,4 C 80 % 1013,0 hPa 0,0 l/m 0 min 2 min 0,0 UV-I 0 W/m 12,9 km/h (3 Bft)
18.04.2014 00:24 10,9 C 8,9 C 81 % 1013,0 hPa 0,0 l/m 0 min 2 min 0,0 UV-I 0 W/m 7,7 km/h (2 Bft)
18.04.2014 00:26 10,8 C 8,9 C 81 % 1013,0 hPa 0,0 l/m 0 min 2 min 0,0 UV-I 0 W/m 15,4 km/h (3 Bft)
18.04.2014 00:28 10,8 C 8,9 C 82 % 1013,0 hPa 0,0 l/m 0 min 2 min 0,0 UV-I 0 W/m 0,0 km/h (0 Bft)
18.04.2014 00:30 10,7 C 8,9 C 83 % 1013,1 hPa 0,0 l/m 0 min 2 min 0,0 UV-I 0 W/m 2,6 km/h (1 Bft)
18.04.2014 00:32 10,6 C 8,9 C 83 % 1013,1 hPa 0,0 l/m 0 min 2 min 0,0 UV-I 0 W/m 7,7 km/h (2 Bft)
18.04.2014 00:34 10,5 C 8,3 C 84 % 1013,1 hPa 0,0 l/m 0 min 2 min 0,0 UV-I 0 W/m 18,0 km/h (3 Bft)
18.04.2014 00:36 10,4 C 8,3 C 85 % 1013,1 hPa 0,0 l/m 0 min 2 min 0,0 UV-I 0 W/m 0,0 km/h (0 Bft)
18.04.2014 00:38 10,3 C 8,3 C 86 % 1013,0 hPa 0,0 l/m 0 min 2 min 0,0 UV-I 0 W/m 0,0 km/h (0 Bft)
18.04.2014 00:40 10,3 C 8,3 C 86 % 1013,1 hPa 0,0 l/m 0 min 2 min 0,0 UV-I 0 W/m 0,0 km/h (0 Bft)
18.04.2014 00:42 10,2 C 8,3 C 87 % 1013,0 hPa 0,0 l/m 0 min 2 min 0,0 UV-I 0 W/m 0,0 km/h (0 Bft)
18.04.2014 00:44 10,1 C 8,3 C 88 % 1013,1 hPa 0,0 l/m 0 min 2 min 0,0 UV-I 0 W/m 0,0 km/h (0 Bft)
18.04.2014 00:46 10,1 C 8,3 C 88 % 1013,1 hPa 0,0 l/m 0 min 2 min 0,0 UV-I 0 W/m 0,0 km/h (0 Bft)
18.04.2014 00:48 10,0 C 8,3 C 89 % 1013,1 hPa 0,0 l/m 0 min 2 min 0,0 UV-I 0 W/m 5,1 km/h (1 Bft)
18.04.2014 00:50 10,0 C 8,3 C 89 % 1013,1 hPa 0,0 l/m 0 min 2 min 0,0 UV-I 0 W/m 12,9 km/h (3 Bft)
18.04.2014 00:52 9,9 C 8,3 C 89 % 1013,2 hPa 0,0 l/m 0 min 2 min 0,0 UV-I 0 W/m 12,9 km/h (3 Bft)
18.04.2014 00:54 9,8 C 7,8 C 89 % 1013,2 hPa 0,0 l/m 0 min 2 min 0,0 UV-I 0 W/m 12,9 km/h (3 Bft)
18.04.2014 00:56 9,8 C 7,8 C 90 % 1013,2 hPa 0,0 l/m 0 min 2 min 0,0 UV-I 0 W/m 7,7 km/h (2 Bft)
18.04.2014 00:58 9,7 C 7,8 C 90 % 1013,2 hPa 0,0 l/m 0 min 2 min 0,0 UV-I 0 W/m 5,1 km/h (1 Bft)
18.04.2014 01:00 9,7 C 7,8 C 90 % 1013,3 hPa 0,0 l/m 0 min 2 min 0,0 UV-I 0 W/m 0,0 km/h (0 Bft)
18.04.2014 01:04 9,6 C 7,8 C 90 % 1013,2 hPa 0,2 l/m 0 min 2 min 0,0 UV-I 0 W/m 18,0 km/h (3 Bft)
18.04.2014 01:06 9,5 C 7,8 C 90 % 1013,1 hPa 0,0 l/m 0 min 2 min 0,0 UV-I 0 W/m 10,3 km/h (2 Bft)
18.04.2014 01:08 9,5 C 7,8 C 91 % 1013,1 hPa 0,0 l/m 0 min 2 min 0,0 UV-I 0 W/m 0,0 km/h (0 Bft)
18.04.2014 01:10 9,4 C 7,8 C 91 % 1013,1 hPa 0,0 l/m 0 min 2 min 0,0 UV-I 0 W/m 5,1 km/h (1 Bft)
18.04.2014 01:12 9,4 C 7,8 C 91 % 1013,1 hPa 0,0 l/m 0 min 2 min 0,0 UV-I 0 W/m 5,1 km/h (1 Bft)
18.04.2014 01:14 9,4 C 7,8 C 91 % 1013,1 hPa 0,0 l/m 0 min 2 min 0,0 UV-I 0 W/m 5,1 km/h (1 Bft)
18.04.2014 01:16 9,4 C 7,8 C 92 % 1013,0 hPa 0,0 l/m 0 min 2 min 0,0 UV-I 0 W/m 2,6 km/h (1 Bft)
18.04.2014 01:18 9,3 C 7,8 C 92 % 1013,1 hPa 0,0 l/m 0 min 2 min 0,0 UV-I 0 W/m 2,6 km/h (1 Bft)
18.04.2014 01:20 9,3 C 7,8 C 92 % 1013,1 hPa 0,0 l/m 0 min 2 min 0,0 UV-I 0 W/m 10,3 km/h (2 Bft)
18.04.2014 01:22 9,3 C 7,8 C 92 % 1013,1 hPa 0,0 l/m 0 min 2 min 0,0 UV-I 0 W/m 0,0 km/h (0 Bft)
18.04.2014 01:24 9,3 C 7,8 C 92 % 1013,1 hPa 0,0 l/m 0 min 2 min 0,0 UV-I 0 W/m 7,7 km/h (2 Bft)
18.04.2014 01:26 9,3 C 7,8 C 93 % 1013,1 hPa 0,0 l/m 0 min 2 min 0,0 UV-I 0 W/m 2,6 km/h (1 Bft)
18.04.2014 01:28 9,3 C 7,8 C 93 % 1013,1 hPa 0,2 l/m 0 min 2 min 0,0 UV-I 0 W/m 12,9 km/h (3 Bft)
18.04.2014 01:30 9,2 C 7,8 C 93 % 1013,1 hPa 0,0 l/m 0 min 2 min 0,0 UV-I 0 W/m 12,9 km/h (3 Bft)
18.04.2014 01:32 9,2 C 7,8 C 93 % 1013,1 hPa 0,0 l/m 0 min 2 min 0,0 UV-I 0 W/m 15,4 km/h (3 Bft)
18.04.2014 01:34 9,2 C 7,8 C 93 % 1013,1 hPa 0,0 l/m 0 min 2 min 0,0 UV-I 0 W/m 7,7 km/h (2 Bft)
18.04.2014 01:36 9,2 C 7,8 C 93 % 1013,1 hPa 0,0 l/m 0 min 2 min 0,0 UV-I 0 W/m 18,0 km/h (3 Bft)
18.04.2014 01:38 9,1 C 7,8 C 93 % 1013,2 hPa 0,0 l/m 0 min 0 min 0,0 UV-I 0 W/m 12,9 km/h (3 Bft)
18.04.2014 01:40 9,0 C 7,8 C 93 % 1013,2 hPa 0,0 l/m 0 min 2 min 0,0 UV-I 0 W/m 7,7 km/h (2 Bft)
18.04.2014 01:42 8,9 C 7,2 C 93 % 1013,2 hPa 0,0 l/m 0 min 2 min 0,0 UV-I 0 W/m 12,9 km/h (3 Bft)
18.04.2014 01:44 8,9 C 7,2 C 93 % 1013,3 hPa 0,0 l/m 0 min 2 min 0,0 UV-I 0 W/m 10,3 km/h (2 Bft)
18.04.2014 01:46 8,9 C 7,2 C 93 % 1013,2 hPa 0,0 l/m 0 min 2 min 0,0 UV-I 0 W/m 12,9 km/h (3 Bft)
18.04.2014 01:48 8,8 C 7,2 C 93 % 1013,2 hPa 0,0 l/m 0 min 2 min 0,0 UV-I 0 W/m 15,4 km/h (3 Bft)
18.04.2014 01:50 8,8 C 7,2 C 93 % 1013,2 hPa 0,0 l/m 0 min 2 min 0,0 UV-I 0 W/m 12,9 km/h (3 Bft)
18.04.2014 01:52 8,8 C 7,2 C 93 % 1013,1 hPa 0,0 l/m 0 min 2 min 0,0 UV-I 0 W/m 7,7 km/h (2 Bft)
18.04.2014 01:54 8,7 C 7,2 C 93 % 1013,1 hPa 0,0 l/m 0 min 2 min 0,0 UV-I 0 W/m 0,0 km/h (0 Bft)
18.04.2014 01:56 8,7 C 7,2 C 93 % 1013,1 hPa 0,0 l/m 0 min 2 min 0,0 UV-I 0 W/m 7,7 km/h (2 Bft)
18.04.2014 01:58 8,7 C 7,2 C 93 % 1013,1 hPa 0,0 l/m 0 min 2 min 0,0 UV-I 0 W/m 7,7 km/h (2 Bft)
18.04.2014 02:00 8,7 C 7,2 C 93 % 1013,2 hPa 0,0 l/m 0 min 2 min 0,0 UV-I 0 W/m 0,0 km/h (0 Bft)
18.04.2014 02:02 8,7 C 7,2 C 93 % 1013,1 hPa 0,0 l/m 0 min 2 min 0,0 UV-I 0 W/m 12,9 km/h (3 Bft)
18.04.2014 02:06 8,6 C 7,2 C 93 % 1013,1 hPa 0,0 l/m 0 min 2 min 0,0 UV-I 0 W/m 12,9 km/h (3 Bft)
18.04.2014 02:08 8,6 C 7,2 C 93 % 1013,0 hPa 0,0 l/m 0 min 2 min 0,0 UV-I 0 W/m 2,6 km/h (1 Bft)
18.04.2014 02:10 8,6 C 7,2 C 93 % 1013,0 hPa 0,0 l/m 0 min 2 min 0,0 UV-I 0 W/m 0,0 km/h (0 Bft)
18.04.2014 02:12 8,6 C 7,2 C 93 % 1013,1 hPa 0,0 l/m 0 min 2 min 0,0 UV-I 0 W/m 0,0 km/h (0 Bft)
18.04.2014 02:14 8,6 C 7,2 C 93 % 1013,0 hPa 0,0 l/m 0 min 2 min 0,0 UV-I 0 W/m 0,0 km/h (0 Bft)
18.04.2014 02:16 8,6 C 7,2 C 93 % 1013,0 hPa 0,0 l/m 0 min 2 min 0,0 UV-I 0 W/m 0,0 km/h (0 Bft)
18.04.2014 02:18 8,6 C 7,2 C 94 % 1013,1 hPa 0,0 l/m 0 min 2 min 0,0 UV-I 0 W/m 0,0 km/h (0 Bft)
18.04.2014 02:20 8,6 C 7,2 C 94 % 1013,0 hPa 0,0 l/m 0 min 2 min 0,0 UV-I 0 W/m 7,7 km/h (2 Bft)
18.04.2014 02:22 8,5 C 7,2 C 94 % 1013,0 hPa 0,0 l/m 0 min 2 min 0,0 UV-I 0 W/m 0,0 km/h (0 Bft)
18.04.2014 02:24 8,5 C 7,2 C 94 % 1013,0 hPa 0,2 l/m 0 min 2 min 0,0 UV-I 0 W/m 12,9 km/h (3 Bft)
18.04.2014 02:26 8,5 C 7,2 C 94 % 1013,0 hPa 0,0 l/m 0 min 2 min 0,0 UV-I 0 W/m 0,0 km/h (0 Bft)
18.04.2014 02:28 8,5 C 7,2 C 94 % 1013,0 hPa 0,0 l/m 0 min 2 min 0,0 UV-I 0 W/m 2,6 km/h (1 Bft)
18.04.2014 02:30 8,5 C 7,2 C 94 % 1013,0 hPa 0,0 l/m 0 min 2 min 0,0 UV-I 0 W/m 7,7 km/h (2 Bft)
18.04.2014 02:32 8,5 C 7,2 C 94 % 1012,9 hPa 0,0 l/m 0 min 2 min 0,0 UV-I 0 W/m 5,1 km/h (1 Bft)
18.04.2014 02:34 8,5 C 7,2 C 95 % 1012,9 hPa 0,0 l/m 0 min 2 min 0,0 UV-I 0 W/m 0,0 km/h (0 Bft)
18.04.2014 02:36 8,5 C 7,2 C 95 % 1012,8 hPa 0,0 l/m 0 min 2 min 0,0 UV-I 0 W/m 7,7 km/h (2 Bft)
18.04.2014 02:38 8,4 C 7,2 C 95 % 1012,8 hPa 0,0 l/m 0 min 2 min 0,0 UV-I 0 W/m 0,0 km/h (0 Bft)
18.04.2014 02:40 8,4 C 7,2 C 95 % 1012,7 hPa 0,0 l/m 0 min 2 min 0,0 UV-I 0 W/m 15,4 km/h (3 Bft)
18.04.2014 02:42 8,4 C 7,2 C 95 % 1012,7 hPa 0,0 l/m 0 min 0 min 0,0 UV-I 0 W/m 0,0 km/h (0 Bft)
18.04.2014 02:44 8,4 C 7,2 C 95 % 1012,7 hPa 0,0 l/m 0 min 0 min 0,0 UV-I 0 W/m 0,0 km/h (0 Bft)
18.04.2014 02:46 8,4 C 7,2 C 95 % 1012,7 hPa 0,0 l/m 0 min 0 min 0,0 UV-I 0 W/m 7,7 km/h (2 Bft)
18.04.2014 02:48 8,4 C 7,2 C 95 % 1012,7 hPa 0,0 l/m 0 min 0 min 0,0 UV-I 0 W/m 2,6 km/h (1 Bft)
18.04.2014 02:50 8,4 C 7,2 C 95 % 1012,8 hPa 0,0 l/m 0 min 0 min 0,0 UV-I 0 W/m 0,0 km/h (0 Bft)
18.04.2014 02:52 8,4 C 7,2 C 95 % 1012,7 hPa 0,0 l/m 0 min 0 min 0,0 UV-I 0 W/m 0,0 km/h (0 Bft)
18.04.2014 02:54 8,4 C 7,2 C 95 % 1012,7 hPa 0,0 l/m 0 min 0 min 0,0 UV-I 0 W/m 0,0 km/h (0 Bft)
18.04.2014 02:56 8,4 C 7,2 C 95 % 1012,7 hPa 0,0 l/m 0 min 0 min 0,0 UV-I 0 W/m 0,0 km/h (0 Bft)
18.04.2014 02:58 8,4 C 7,2 C 95 % 1012,7 hPa 0,0 l/m 0 min 0 min 0,0 UV-I 0 W/m 0,0 km/h (0 Bft)
18.04.2014 03:00 8,4 C 7,2 C 95 % 1012,7 hPa 0,0 l/m 0 min 0 min 0,0 UV-I 0 W/m 0,0 km/h (0 Bft)
18.04.2014 03:02 8,4 C 7,2 C 95 % 1012,7 hPa 0,0 l/m 0 min 0 min 0,0 UV-I 0 W/m 0,0 km/h (0 Bft)
18.04.2014 03:06 8,4 C 7,2 C 96 % 1012,5 hPa 0,0 l/m 0 min 0 min 0,0 UV-I 0 W/m 0,0 km/h (0 Bft)
18.04.2014 03:08 8,4 C 7,2 C 96 % 1012,6 hPa 0,0 l/m 0 min 0 min 0,0 UV-I 0 W/m 0,0 km/h (0 Bft)
18.04.2014 03:10 8,4 C 7,2 C 96 % 1012,6 hPa 0,0 l/m 0 min 0 min 0,0 UV-I 0 W/m 0,0 km/h (0 Bft)
18.04.2014 03:12 8,4 C 7,2 C 96 % 1012,5 hPa 0,0 l/m 0 min 0 min 0,0 UV-I 0 W/m 0,0 km/h (0 Bft)
18.04.2014 03:14 8,4 C 7,2 C 96 % 1012,5 hPa 0,0 l/m 0 min 0 min 0,0 UV-I 0 W/m 0,0 km/h (0 Bft)
18.04.2014 03:16 8,4 C 7,2 C 96 % 1012,5 hPa 0,0 l/m 0 min 0 min 0,0 UV-I 0 W/m 2,6 km/h (1 Bft)
18.04.2014 03:18 8,3 C 7,2 C 96 % 1012,4 hPa 0,0 l/m 0 min 0 min 0,0 UV-I 0 W/m 0,0 km/h (0 Bft)
18.04.2014 03:20 8,4 C 7,2 C 96 % 1012,5 hPa 0,0 l/m 0 min 0 min 0,0 UV-I 0 W/m 0,0 km/h (0 Bft)
18.04.2014 03:22 8,3 C 7,2 C 96 % 1012,5 hPa 0,0 l/m 0 min 0 min 0,0 UV-I 0 W/m 0,0 km/h (0 Bft)
18.04.2014 03:24 8,3 C 7,2 C 96 % 1012,4 hPa 0,0 l/m 0 min 0 min 0,0 UV-I 0 W/m 0,0 km/h (0 Bft)
18.04.2014 03:26 8,3 C 7,2 C 96 % 1012,5 hPa 0,0 l/m 0 min 0 min 0,0 UV-I 0 W/m 2,6 km/h (1 Bft)
18.04.2014 03:28 8,3 C 7,2 C 96 % 1012,4 hPa 0,0 l/m 0 min 0 min 0,0 UV-I 0 W/m 0,0 km/h (0 Bft)
18.04.2014 03:30 8,3 C 7,2 C 96 % 1012,4 hPa 0,0 l/m 0 min 0 min 0,0 UV-I 0 W/m 0,0 km/h (0 Bft)
18.04.2014 03:32 8,3 C 7,2 C 96 % 1012,4 hPa 0,0 l/m 0 min 0 min 0,0 UV-I 0 W/m 0,0 km/h (0 Bft)
18.04.2014 03:34 8,3 C 7,2 C 96 % 1012,4 hPa 0,0 l/m 0 min 0 min 0,0 UV-I 0 W/m 0,0 km/h (0 Bft)
18.04.2014 03:36 8,3 C 7,2 C 96 % 1012,4 hPa 0,0 l/m 0 min 0 min 0,0 UV-I 0 W/m 0,0 km/h (0 Bft)
18.04.2014 03:38 8,3 C 6,7 C 96 % 1012,4 hPa 0,0 l/m 0 min 0 min 0,0 UV-I 0 W/m 2,6 km/h (1 Bft)
18.04.2014 03:40 8,2 C 6,7 C 96 % 1012,4 hPa 0,0 l/m 0 min 0 min 0,0 UV-I 0 W/m 0,0 km/h (0 Bft)
18.04.2014 03:42 8,2 C 6,7 C 96 % 1012,6 hPa 0,0 l/m 0 min 0 min 0,0 UV-I 0 W/m 0,0 km/h (0 Bft)
18.04.2014 03:44 8,1 C 6,7 C 96 % 1012,5 hPa 0,0 l/m 0 min 0 min 0,0 UV-I 0 W/m 0,0 km/h (0 Bft)
18.04.2014 03:46 8,1 C 6,7 C 96 % 1012,4 hPa 0,0 l/m 0 min 0 min 0,0 UV-I 0 W/m 0,0 km/h (0 Bft)
18.04.2014 03:48 8,0 C 6,7 C 96 % 1012,6 hPa 0,0 l/m 0 min 0 min 0,0 UV-I 0 W/m 0,0 km/h (0 Bft)
18.04.2014 03:50 7,9 C 6,7 C 96 % 1012,6 hPa 0,0 l/m 0 min 0 min 0,0 UV-I 0 W/m 0,0 km/h (0 Bft)
18.04.2014 03:52 7,8 C 6,1 C 96 % 1012,6 hPa 0,0 l/m 0 min 0 min 0,0 UV-I 0 W/m 0,0 km/h (0 Bft)
18.04.2014 03:54 7,8 C 6,1 C 96 % 1012,6 hPa 0,0 l/m 0 min 0 min 0,0 UV-I 0 W/m 0,0 km/h (0 Bft)
18.04.2014 03:56 7,7 C 6,1 C 96 % 1012,7 hPa 0,0 l/m 0 min 0 min 0,0 UV-I 0 W/m 0,0 km/h (0 Bft)
18.04.2014 03:58 7,7 C 6,1 C 96 % 1012,7 hPa 0,0 l/m 0 min 0 min 0,0 UV-I 0 W/m 0,0 km/h (0 Bft)
18.04.2014 04:00 7,6 C 6,1 C 95 % 1012,6 hPa 0,0 l/m 0 min 0 min 0,0 UV-I 0 W/m 0,0 km/h (0 Bft)
18.04.2014 04:02 7,6 C 6,1 C 95 % 1012,6 hPa 0,0 l/m 0 min 0 min 0,0 UV-I 0 W/m 0,0 km/h (0 Bft)
18.04.2014 04:06 7,4 C 6,1 C 96 % 1012,7 hPa 0,0 l/m 0 min 0 min 0,0 UV-I 0 W/m 0,0 km/h (0 Bft)
18.04.2014 04:08 7,4 C 6,1 C 96 % 1012,6 hPa 0,0 l/m 0 min 0 min 0,0 UV-I 0 W/m 0,0 km/h (0 Bft)
18.04.2014 04:10 7,3 C 6,1 C 96 % 1012,6 hPa 0,0 l/m 0 min 0 min 0,0 UV-I 0 W/m 0,0 km/h (0 Bft)
18.04.2014 04:12 7,3 C 5,6 C 96 % 1012,6 hPa 0,0 l/m 0 min 0 min 0,0 UV-I 0 W/m 0,0 km/h (0 Bft)
18.04.2014 04:14 7,3 C 5,6 C 95 % 1012,6 hPa 0,0 l/m 0 min 0 min 0,0 UV-I 0 W/m 0,0 km/h (0 Bft)
18.04.2014 04:16 7,2 C 5,6 C 95 % 1012,6 hPa 0,0 l/m 0 min 2 min 0,0 UV-I 0 W/m 0,0 km/h (0 Bft)
18.04.2014 04:18 7,2 C 5,6 C 96 % 1012,6 hPa 0,0 l/m 0 min 2 min 0,0 UV-I 0 W/m 0,0 km/h (0 Bft)
18.04.2014 04:20 7,2 C 5,6 C 96 % 1012,5 hPa 0,0 l/m 0 min 0 min 0,0 UV-I 0 W/m 0,0 km/h (0 Bft)
18.04.2014 04:22 7,1 C 5,6 C 96 % 1012,5 hPa 0,0 l/m 0 min 0 min 0,0 UV-I 0 W/m 2,6 km/h (1 Bft)
18.04.2014 04:24 7,1 C 5,6 C 96 % 1012,6 hPa 0,0 l/m 0 min 0 min 0,0 UV-I 0 W/m 0,0 km/h (0 Bft)
18.04.2014 04:26 7,1 C 5,6 C 96 % 1012,6 hPa 0,0 l/m 0 min 0 min 0,0 UV-I 0 W/m 0,0 km/h (0 Bft)
18.04.2014 04:28 7,1 C 5,6 C 96 % 1012,6 hPa 0,0 l/m 0 min 0 min 0,0 UV-I 0 W/m 0,0 km/h (0 Bft)
18.04.2014 04:30 7,0 C 5,6 C 96 % 1012,6 hPa 0,0 l/m 0 min 0 min 0,0 UV-I 0 W/m 0,0 km/h (0 Bft)
18.04.2014 04:32 7,0 C 5,6 C 96 % 1012,6 hPa 0,0 l/m 0 min 0 min 0,0 UV-I 0 W/m 0,0 km/h (0 Bft)
18.04.2014 04:34 7,0 C 5,6 C 96 % 1012,6 hPa 0,0 l/m 0 min 0 min 0,0 UV-I 0 W/m 0,0 km/h (0 Bft)
18.04.2014 04:36 6,9 C 5,6 C 96 % 1012,5 hPa 0,0 l/m 0 min 0 min 0,0 UV-I 0 W/m 0,0 km/h (0 Bft)
18.04.2014 04:38 6,9 C 5,6 C 96 % 1012,6 hPa 0,0 l/m 0 min 0 min 0,0 UV-I 0 W/m 0,0 km/h (0 Bft)
18.04.2014 04:40 6,8 C 5,0 C 96 % 1012,6 hPa 0,0 l/m 0 min 0 min 0,0 UV-I 0 W/m 0,0 km/h (0 Bft)
18.04.2014 04:42 6,8 C 5,0 C 96 % 1012,6 hPa 0,0 l/m 0 min 0 min 0,0 UV-I 0 W/m 0,0 km/h (0 Bft)
18.04.2014 04:44 6,7 C 5,0 C 96 % 1012,5 hPa 0,0 l/m 0 min 0 min 0,0 UV-I 0 W/m 0,0 km/h (0 Bft)
18.04.2014 04:46 6,7 C 5,0 C 96 % 1012,6 hPa 0,0 l/m 0 min 0 min 0,0 UV-I 0 W/m 0,0 km/h (0 Bft)
18.04.2014 04:48 6,7 C 5,0 C 96 % 1012,6 hPa 0,0 l/m 0 min 0 min 0,0 UV-I 0 W/m 0,0 km/h (0 Bft)
18.04.2014 04:50 6,7 C 5,0 C 96 % 1012,6 hPa 0,0 l/m 0 min 0 min 0,0 UV-I 0 W/m 0,0 km/h (0 Bft)
18.04.2014 04:52 6,7 C 5,0 C 96 % 1012,7 hPa 0,0 l/m 0 min 0 min 0,0 UV-I 0 W/m 0,0 km/h (0 Bft)
18.04.2014 04:54 6,6 C 5,0 C 96 % 1012,7 hPa 0,0 l/m 0 min 0 min 0,0 UV-I 0 W/m 0,0 km/h (0 Bft)
18.04.2014 04:56 6,6 C 5,0 C 96 % 1012,6 hPa 0,0 l/m 0 min 0 min 0,0 UV-I 0 W/m 0,0 km/h (0 Bft)
18.04.2014 04:58 6,6 C 5,0 C 96 % 1012,7 hPa 0,0 l/m 0 min 0 min 0,0 UV-I 0 W/m 0,0 km/h (0 Bft)
18.04.2014 05:00 6,6 C 5,0 C 96 % 1012,7 hPa 0,0 l/m 0 min 0 min 0,0 UV-I 0 W/m 0,0 km/h (0 Bft)
18.04.2014 05:02 6,6 C 5,0 C 96 % 1012,7 hPa 0,0 l/m 0 min 0 min 0,0 UV-I 0 W/m 0,0 km/h (0 Bft)
18.04.2014 05:06 6,4 C 5,0 C 96 % 1012,7 hPa 0,0 l/m 0 min 0 min 0,0 UV-I 0 W/m 0,0 km/h (0 Bft)
18.04.2014 05:08 6,4 C 5,0 C 96 % 1012,7 hPa 0,0 l/m 0 min 0 min 0,0 UV-I 0 W/m 0,0 km/h (0 Bft)
18.04.2014 05:10 6,4 C 5,0 C 96 % 1012,8 hPa 0,0 l/m 0 min 0 min 0,0 UV-I 0 W/m 0,0 km/h (0 Bft)
18.04.2014 05:12 6,4 C 5,0 C 96 % 1012,8 hPa 0,0 l/m 0 min 0 min 0,0 UV-I 0 W/m 0,0 km/h (0 Bft)
18.04.2014 05:14 6,4 C 5,0 C 96 % 1012,8 hPa 0,0 l/m 0 min 0 min 0,0 UV-I 0 W/m 0,0 km/h (0 Bft)
18.04.2014 05:16 6,4 C 5,0 C 96 % 1012,8 hPa 0,0 l/m 0 min 0 min 0,0 UV-I 0 W/m 0,0 km/h (0 Bft)
18.04.2014 05:18 6,4 C 5,0 C 96 % 1012,8 hPa 0,0 l/m 0 min 0 min 0,0 UV-I 0 W/m 0,0 km/h (0 Bft)
18.04.2014 05:20 6,4 C 5,0 C 96 % 1012,8 hPa 0,0 l/m 0 min 0 min 0,0 UV-I 0 W/m 5,1 km/h (1 Bft)
18.04.2014 05:22 6,4 C 5,0 C 96 % 1012,8 hPa 0,0 l/m 0 min 0 min 0,0 UV-I 0 W/m 0,0 km/h (0 Bft)
18.04.2014 05:24 6,3 C 5,0 C 96 % 1012,8 hPa 0,0 l/m 0 min 0 min 0,0 UV-I 0 W/m 5,1 km/h (1 Bft)
18.04.2014 05:26 6,3 C 5,0 C 96 % 1012,8 hPa 0,0 l/m 0 min 0 min 0,0 UV-I 0 W/m 0,0 km/h (0 Bft)
18.04.2014 05:28 6,3 C 5,0 C 96 % 1012,9 hPa 0,0 l/m 0 min 0 min 0,0 UV-I 0 W/m 0,0 km/h (0 Bft)
18.04.2014 05:30 6,2 C 5,0 C 96 % 1012,9 hPa 0,0 l/m 0 min 0 min 0,0 UV-I 0 W/m 0,0 km/h (0 Bft)
18.04.2014 05:32 6,2 C 4,4 C 96 % 1012,9 hPa 0,0 l/m 0 min 0 min 0,0 UV-I 0 W/m 0,0 km/h (0 Bft)
18.04.2014 05:34 6,2 C 4,4 C 96 % 1012,9 hPa 0,0 l/m 0 min 0 min 0,0 UV-I 0 W/m 0,0 km/h (0 Bft)
18.04.2014 05:36 6,1 C 4,4 C 96 % 1012,9 hPa 0,0 l/m 0 min 0 min 0,0 UV-I 0 W/m 0,0 km/h (0 Bft)
18.04.2014 05:38 6,1 C 4,4 C 96 % 1012,9 hPa 0,0 l/m 0 min 0 min 0,0 UV-I 0 W/m 0,0 km/h (0 Bft)
18.04.2014 05:40 6,0 C 4,4 C 96 % 1012,9 hPa 0,0 l/m 0 min 0 min 0,0 UV-I 0 W/m 0,0 km/h (0 Bft)
18.04.2014 05:42 5,9 C 4,4 C 96 % 1012,9 hPa 0,0 l/m 0 min 0 min 0,0 UV-I 0 W/m 0,0 km/h (0 Bft)
18.04.2014 05:44 5,9 C 4,4 C 96 % 1012,9 hPa 0,0 l/m 0 min 0 min 0,0 UV-I 0 W/m 2,6 km/h (1 Bft)
18.04.2014 05:46 5,9 C 4,4 C 96 % 1012,8 hPa 0,0 l/m 0 min 0 min 0,0 UV-I 0 W/m 0,0 km/h (0 Bft)
18.04.2014 05:48 5,9 C 4,4 C 96 % 1012,9 hPa 0,0 l/m 0 min 2 min 0,0 UV-I 0 W/m 0,0 km/h (0 Bft)
18.04.2014 05:50 5,8 C 4,4 C 96 % 1012,9 hPa 0,0 l/m 0 min 0 min 0,0 UV-I 0 W/m 0,0 km/h (0 Bft)
18.04.2014 05:52 5,8 C 4,4 C 96 % 1012,9 hPa 0,0 l/m 0 min 0 min 0,0 UV-I 0 W/m 0,0 km/h (0 Bft)
18.04.2014 05:54 5,7 C 4,4 C 96 % 1012,9 hPa 0,0 l/m 0 min 0 min 0,0 UV-I 0 W/m 0,0 km/h (0 Bft)
18.04.2014 05:56 5,7 C 3,9 C 96 % 1012,9 hPa 0,0 l/m 0 min 0 min 0,0 UV-I 0 W/m 0,0 km/h (0 Bft)
18.04.2014 05:58 5,7 C 3,9 C 96 % 1012,9 hPa 0,0 l/m 0 min 0 min 0,0 UV-I 0 W/m 0,0 km/h (0 Bft)
18.04.2014 06:00 5,6 C 3,9 C 96 % 1012,9 hPa 0,0 l/m 0 min 0 min 0,0 UV-I 0 W/m 0,0 km/h (0 Bft)
18.04.2014 06:02 5,6 C 3,9 C 96 % 1012,9 hPa 0,0 l/m 0 min 0 min 0,0 UV-I 0 W/m 0,0 km/h (0 Bft)
18.04.2014 06:06 5,4 C 3,9 C 95 % 1013,0 hPa 0,0 l/m 0 min 0 min 0,0 UV-I 0 W/m 0,0 km/h (0 Bft)
18.04.2014 06:08 5,4 C 3,9 C 95 % 1013,0 hPa 0,2 l/m 0 min 0 min 0,0 UV-I 0 W/m 0,0 km/h (0 Bft)
18.04.2014 06:10 5,4 C 3,9 C 95 % 1013,0 hPa 0,0 l/m 0 min 0 min 0,0 UV-I 0 W/m 0,0 km/h (0 Bft)
18.04.2014 06:12 5,3 C 3,9 C 95 % 1013,0 hPa 0,0 l/m 0 min 0 min 0,0 UV-I 0 W/m 2,6 km/h (1 Bft)
18.04.2014 06:14 5,4 C 3,9 C 95 % 1013,0 hPa 0,0 l/m 0 min 0 min 0,0 UV-I 0 W/m 7,7 km/h (2 Bft)
18.04.2014 06:16 5,4 C 3,9 C 95 % 1013,0 hPa 0,0 l/m 0 min 0 min 0,0 UV-I 0 W/m 0,0 km/h (0 Bft)
18.04.2014 06:18 5,4 C 3,9 C 96 % 1013,0 hPa 0,0 l/m 0 min 0 min 0,0 UV-I 0 W/m 0,0 km/h (0 Bft)
18.04.2014 06:20 5,3 C 3,9 C 96 % 1013,1 hPa 0,0 l/m 0 min 0 min 0,0 UV-I 0 W/m 7,7 km/h (2 Bft)
18.04.2014 06:22 5,3 C 3,9 C 96 % 1013,0 hPa 0,0 l/m 0 min 0 min 0,0 UV-I 0 W/m 2,6 km/h (1 Bft)
18.04.2014 06:24 5,3 C 3,9 C 95 % 1013,0 hPa 0,0 l/m 0 min 0 min 0,0 UV-I 0 W/m 0,0 km/h (0 Bft)
18.04.2014 06:26 5,3 C 3,9 C 95 % 1013,0 hPa 0,0 l/m 0 min 0 min 0,0 UV-I 0 W/m 0,0 km/h (0 Bft)
18.04.2014 06:28 5,4 C 3,9 C 95 % 1013,0 hPa 0,0 l/m 0 min 0 min 0,0 UV-I 0 W/m 0,0 km/h (0 Bft)
18.04.2014 06:30 5,3 C 3,9 C 95 % 1013,0 hPa 0,0 l/m 0 min 0 min 0,0 UV-I 0 W/m 0,0 km/h (0 Bft)
18.04.2014 06:32 5,3 C 3,9 C 95 % 1013,0 hPa 0,0 l/m 0 min 0 min 0,0 UV-I 5 W/m 0,0 km/h (0 Bft)
18.04.2014 06:34 5,3 C 3,9 C 95 % 1013,0 hPa 0,0 l/m 0 min 0 min 0,0 UV-I 5 W/m 0,0 km/h (0 Bft)
18.04.2014 06:36 5,2 C 3,9 C 95 % 1013,0 hPa 0,0 l/m 0 min 0 min 0,0 UV-I 5 W/m 2,6 km/h (1 Bft)
18.04.2014 06:38 5,2 C 3,9 C 95 % 1013,0 hPa 0,0 l/m 0 min 0 min 0,0 UV-I 5 W/m 0,0 km/h (0 Bft)
18.04.2014 06:40 5,1 C 3,9 C 95 % 1013,0 hPa 0,0 l/m 0 min 0 min 0,0 UV-I 7 W/m 0,0 km/h (0 Bft)
18.04.2014 06:42 5,1 C 3,3 C 95 % 1013,0 hPa 0,0 l/m 0 min 0 min 0,0 UV-I 7 W/m 0,0 km/h (0 Bft)
18.04.2014 06:44 5,1 C 3,3 C 95 % 1013,0 hPa 0,0 l/m 0 min 0 min 0,0 UV-I 9 W/m 0,0 km/h (0 Bft)
18.04.2014 06:46 5,0 C 3,3 C 95 % 1013,1 hPa 0,0 l/m 0 min 0 min 0,0 UV-I 9 W/m 0,0 km/h (0 Bft)
18.04.2014 06:48 5,0 C 3,3 C 95 % 1013,0 hPa 0,0 l/m 0 min 0 min 0,0 UV-I 9 W/m 0,0 km/h (0 Bft)
18.04.2014 06:50 4,9 C 3,3 C 95 % 1013,1 hPa 0,0 l/m 0 min 0 min 0,0 UV-I 11 W/m 0,0 km/h (0 Bft)
18.04.2014 06:52 4,9 C 3,3 C 95 % 1013,0 hPa 0,0 l/m 0 min 0 min 0,0 UV-I 11 W/m 0,0 km/h (0 Bft)
18.04.2014 06:54 5,0 C 3,3 C 95 % 1013,1 hPa 0,0 l/m 0 min 0 min 0,0 UV-I 12 W/m 0,0 km/h (0 Bft)
18.04.2014 06:56 5,0 C 3,3 C 95 % 1013,0 hPa 0,0 l/m 0 min 0 min 0,0 UV-I 12 W/m 0,0 km/h (0 Bft)
18.04.2014 06:58 5,0 C 3,3 C 95 % 1013,0 hPa 0,0 l/m 0 min 0 min 0,0 UV-I 14 W/m 0,0 km/h (0 Bft)
18.04.2014 07:00 5,0 C 3,3 C 95 % 1013,1 hPa 0,0 l/m 0 min 0 min 0,0 UV-I 14 W/m 0,0 km/h (0 Bft)
18.04.2014 07:02 4,9 C 3,3 C 95 % 1013,1 hPa 0,0 l/m 0 min 0 min 0,0 UV-I 16 W/m 0,0 km/h (0 Bft)
18.04.2014 07:06 4,9 C 3,3 C 95 % 1013,1 hPa 0,0 l/m 0 min 0 min 0,0 UV-I 16 W/m 0,0 km/h (0 Bft)
18.04.2014 07:08 4,9 C 3,3 C 95 % 1013,1 hPa 0,0 l/m 0 min 0 min 0,0 UV-I 18 W/m 0,0 km/h (0 Bft)
18.04.2014 07:10 4,9 C 3,3 C 95 % 1013,2 hPa 0,0 l/m 0 min 0 min 0,0 UV-I 18 W/m 0,0 km/h (0 Bft)
18.04.2014 07:12 4,9 C 3,3 C 95 % 1013,2 hPa 0,0 l/m 0 min 0 min 0,0 UV-I 19 W/m 0,0 km/h (0 Bft)
18.04.2014 07:14 5,0 C 3,3 C 95 % 1013,3 hPa 0,0 l/m 0 min 0 min 0,0 UV-I 21 W/m 0,0 km/h (0 Bft)
18.04.2014 07:16 5,1 C 3,3 C 95 % 1013,3 hPa 0,0 l/m 0 min 0 min 0,0 UV-I 19 W/m 0,0 km/h (0 Bft)
18.04.2014 07:18 5,1 C 3,3 C 95 % 1013,3 hPa 0,0 l/m 0 min 0 min 0,0 UV-I 19 W/m 0,0 km/h (0 Bft)
18.04.2014 07:20 5,1 C 3,3 C 95 % 1013,2 hPa 0,0 l/m 0 min 0 min 0,0 UV-I 21 W/m 0,0 km/h (0 Bft)
18.04.2014 07:22 5,1 C 3,9 C 95 % 1013,3 hPa 0,0 l/m 0 min 0 min 0,0 UV-I 21 W/m 0,0 km/h (0 Bft)
18.04.2014 07:24 5,1 C 3,9 C 95 % 1013,3 hPa 0,0 l/m 0 min 0 min 0,0 UV-I 23 W/m 0,0 km/h (0 Bft)
18.04.2014 07:26 5,1 C 3,9 C 95 % 1013,3 hPa 0,0 l/m 0 min 0 min 0,0 UV-I 28 W/m 0,0 km/h (0 Bft)
18.04.2014 07:28 5,2 C 3,9 C 95 % 1013,4 hPa 0,0 l/m 0 min 0 min 0,0 UV-I 32 W/m 0,0 km/h (0 Bft)
18.04.2014 07:30 5,2 C 3,9 C 95 % 1013,4 hPa 0,0 l/m 0 min 0 min 0,0 UV-I 28 W/m 5,1 km/h (1 Bft)
18.04.2014 07:32 5,2 C 3,9 C 95 % 1013,4 hPa 0,0 l/m 0 min 0 min 0,0 UV-I 32 W/m 0,0 km/h (0 Bft)
18.04.2014 07:34 5,2 C 3,9 C 95 % 1013,4 hPa 0,0 l/m 0 min 0 min 0,0 UV-I 32 W/m 0,0 km/h (0 Bft)
18.04.2014 07:36 5,3 C 3,9 C 95 % 1013,4 hPa 0,0 l/m 0 min 0 min 0,0 UV-I 32 W/m 0,0 km/h (0 Bft)
18.04.2014 07:38 5,3 C 3,9 C 95 % 1013,5 hPa 0,0 l/m 0 min 0 min 0,0 UV-I 32 W/m 5,1 km/h (1 Bft)
18.04.2014 07:40 5,4 C 3,9 C 95 % 1013,4 hPa 0,0 l/m 0 min 0 min 0,0 UV-I 33 W/m 2,6 km/h (1 Bft)
18.04.2014 07:42 5,4 C 4,4 C 95 % 1013,5 hPa 0,0 l/m 0 min 0 min 0,0 UV-I 33 W/m 0,0 km/h (0 Bft)
18.04.2014 07:44 5,4 C 4,4 C 95 % 1013,4 hPa 0,0 l/m 0 min 0 min 0,0 UV-I 33 W/m 0,0 km/h (0 Bft)
18.04.2014 07:46 5,5 C 4,4 C 95 % 1013,4 hPa 0,0 l/m 0 min 0 min 0,0 UV-I 35 W/m 5,1 km/h (1 Bft)
18.04.2014 07:48 5,6 C 4,4 C 95 % 1013,5 hPa 0,0 l/m 0 min 0 min 0,0 UV-I 37 W/m 7,7 km/h (2 Bft)
18.04.2014 07:50 5,6 C 4,4 C 95 % 1013,5 hPa 0,0 l/m 0 min 0 min 0,0 UV-I 42 W/m 2,6 km/h (1 Bft)
18.04.2014 07:52 5,7 C 4,4 C 95 % 1013,5 hPa 0,0 l/m 0 min 0 min 0,0 UV-I 42 W/m 5,1 km/h (1 Bft)
18.04.2014 07:54 5,7 C 4,4 C 95 % 1013,6 hPa 0,0 l/m 0 min 0 min 0,0 UV-I 40 W/m 5,1 km/h (1 Bft)
18.04.2014 07:56 5,8 C 4,4 C 95 % 1013,5 hPa 0,0 l/m 0 min 0 min 0,0 UV-I 39 W/m 2,6 km/h (1 Bft)
18.04.2014 07:58 5,8 C 4,4 C 95 % 1013,6 hPa 0,0 l/m 0 min 0 min 0,0 UV-I 40 W/m 10,3 km/h (2 Bft)
18.04.2014 08:00 5,8 C 4,4 C 95 % 1013,6 hPa 0,0 l/m 0 min 0 min 0,0 UV-I 40 W/m 0,0 km/h (0 Bft)
18.04.2014 08:02 5,9 C 4,4 C 95 % 1013,6 hPa 0,0 l/m 0 min 0 min 0,0 UV-I 42 W/m 2,6 km/h (1 Bft)
18.04.2014 08:06 6,0 C 4,4 C 95 % 1013,7 hPa 0,0 l/m 0 min 0 min 0,0 UV-I 44 W/m 7,7 km/h (2 Bft)
18.04.2014 08:08 6,1 C 4,4 C 94 % 1013,7 hPa 0,0 l/m 0 min 0 min 0,0 UV-I 44 W/m 7,7 km/h (2 Bft)
18.04.2014 08:10 6,2 C 4,4 C 94 % 1013,7 hPa 0,0 l/m 0 min 0 min 0,0 UV-I 44 W/m 5,1 km/h (1 Bft)
18.04.2014 08:12 6,2 C 5,0 C 94 % 1013,7 hPa 0,0 l/m 0 min 0 min 0,0 UV-I 44 W/m 15,4 km/h (3 Bft)
18.04.2014 08:14 6,3 C 5,0 C 94 % 1013,6 hPa 0,0 l/m 0 min 0 min 0,0 UV-I 46 W/m 18,0 km/h (3 Bft)
18.04.2014 08:16 6,3 C 5,0 C 94 % 1013,7 hPa 0,0 l/m 0 min 0 min 0,0 UV-I 46 W/m 0,0 km/h (0 Bft)
18.04.2014 08:18 6,4 C 5,0 C 93 % 1013,7 hPa 0,0 l/m 0 min 0 min 0,0 UV-I 47 W/m 15,4 km/h (3 Bft)
18.04.2014 08:20 6,4 C 5,0 C 93 % 1013,7 hPa 0,0 l/m 0 min 0 min 0,0 UV-I 51 W/m 2,6 km/h (1 Bft)
18.04.2014 08:22 6,5 C 5,0 C 93 % 1013,8 hPa 0,0 l/m 0 min 0 min 0,0 UV-I 107 W/m 10,3 km/h (2 Bft)
18.04.2014 08:24 6,6 C 5,0 C 93 % 1013,9 hPa 0,0 l/m 2 min 0 min 0,0 UV-I 211 W/m 12,9 km/h (3 Bft)
18.04.2014 08:26 6,7 C 5,0 C 93 % 1013,9 hPa 0,0 l/m 0 min 0 min 0,0 UV-I 56 W/m 7,7 km/h (2 Bft)
18.04.2014 08:28 6,7 C 5,0 C 92 % 1013,9 hPa 0,0 l/m 0 min 0 min 0,0 UV-I 113 W/m 15,4 km/h (3 Bft)
18.04.2014 08:30 6,7 C 5,0 C 92 % 1013,9 hPa 0,0 l/m 0 min 0 min 0,0 UV-I 134 W/m 10,3 km/h (2 Bft)
18.04.2014 08:32 6,7 C 5,0 C 91 % 1013,9 hPa 0,0 l/m 2 min 0 min 0,0 UV-I 172 W/m 12,9 km/h (3 Bft)
18.04.2014 08:34 6,7 C 5,0 C 91 % 1013,9 hPa 0,0 l/m 2 min 0 min 0,0 UV-I 223 W/m 12,9 km/h (3 Bft)
18.04.2014 08:36 6,8 C 5,0 C 91 % 1014,0 hPa 0,0 l/m 2 min 0 min 0,0 UV-I 172 W/m 10,3 km/h (2 Bft)
18.04.2014 08:38 6,8 C 5,0 C 91 % 1014,0 hPa 0,0 l/m 2 min 0 min 0,0 UV-I 186 W/m 23,2 km/h (4 Bft)
18.04.2014 08:40 6,8 C 5,0 C 90 % 1014,0 hPa 0,0 l/m 2 min 2 min 0,0 UV-I 193 W/m 25,7 km/h (4 Bft)
18.04.2014 08:42 6,9 C 5,0 C 90 % 1013,9 hPa 0,0 l/m 2 min 0 min 0,0 UV-I 345 W/m 18,0 km/h (3 Bft)
18.04.2014 08:44 6,9 C 5,6 C 90 % 1014,0 hPa 0,0 l/m 0 min 0 min 0,0 UV-I 151 W/m 12,9 km/h (3 Bft)
18.04.2014 08:46 7,1 C 5,6 C 90 % 1014,0 hPa 0,0 l/m 0 min 0 min 0,0 UV-I 144 W/m 2,6 km/h (1 Bft)
18.04.2014 08:48 7,1 C 5,6 C 90 % 1014,0 hPa 0,0 l/m 2 min 0 min 0,0 UV-I 246 W/m 18,0 km/h (3 Bft)
18.04.2014 08:50 7,2 C 5,6 C 89 % 1014,0 hPa 0,0 l/m 2 min 0 min 0,0 UV-I 207 W/m 7,7 km/h (2 Bft)
18.04.2014 08:52 7,3 C 6,1 C 89 % 1014,0 hPa 0,0 l/m 2 min 0 min 0,0 UV-I 202 W/m 10,3 km/h (2 Bft)
18.04.2014 08:54 7,4 C 6,1 C 89 % 1014,0 hPa 0,0 l/m 0 min 0 min 0,0 UV-I 155 W/m 12,9 km/h (3 Bft)
18.04.2014 08:56 7,4 C 6,1 C 88 % 1014,1 hPa 0,0 l/m 0 min 0 min 0,0 UV-I 123 W/m 10,3 km/h (2 Bft)
18.04.2014 08:58 7,5 C 6,1 C 88 % 1014,1 hPa 0,0 l/m 0 min 0 min 0,0 UV-I 116 W/m 15,4 km/h (3 Bft)
18.04.2014 09:00 7,5 C 6,1 C 88 % 1014,1 hPa 0,0 l/m 2 min 0 min 0,0 UV-I 234 W/m 20,6 km/h (4 Bft)
18.04.2014 09:02 7,6 C 6,1 C 87 % 1014,1 hPa 0,0 l/m 2 min 0 min 0,0 UV-I 221 W/m 12,9 km/h (3 Bft)
18.04.2014 09:06 7,7 C 6,1 C 87 % 1014,1 hPa 0,0 l/m 2 min 0 min 0,0 UV-I 355 W/m 20,6 km/h (4 Bft)
18.04.2014 09:08 7,7 C 6,1 C 86 % 1014,1 hPa 0,0 l/m 2 min 0 min 0,0 UV-I 432 W/m 18,0 km/h (3 Bft)
18.04.2014 09:10 7,8 C 6,1 C 86 % 1014,1 hPa 0,0 l/m 2 min 0 min 0,0 UV-I 338 W/m 15,4 km/h (3 Bft)
18.04.2014 09:12 7,9 C 6,1 C 86 % 1014,2 hPa 0,0 l/m 2 min 0 min 0,0 UV-I 279 W/m 18,0 km/h (3 Bft)
18.04.2014 09:14 7,9 C 6,1 C 85 % 1014,2 hPa 0,0 l/m 2 min 0 min 0,0 UV-I 248 W/m 30,9 km/h (5 Bft)
18.04.2014 09:16 8,0 C 6,1 C 85 % 1014,3 hPa 0,0 l/m 2 min 0 min 0,0 UV-I 359 W/m 20,6 km/h (4 Bft)
18.04.2014 09:18 8,0 C 6,7 C 84 % 1014,1 hPa 0,0 l/m 2 min 0 min 0,0 UV-I 260 W/m 15,4 km/h (3 Bft)
18.04.2014 09:20 8,1 C 6,7 C 85 % 1014,2 hPa 0,0 l/m 0 min 0 min 0,0 UV-I 220 W/m 12,9 km/h (3 Bft)
18.04.2014 09:22 8,2 C 6,7 C 85 % 1014,2 hPa 0,0 l/m 2 min 0 min 0,0 UV-I 255 W/m 18,0 km/h (3 Bft)
18.04.2014 09:24 8,2 C 7,2 C 84 % 1014,2 hPa 0,0 l/m 2 min 0 min 0,0 UV-I 246 W/m 23,2 km/h (4 Bft)
18.04.2014 09:26 8,3 C 7,2 C 84 % 1014,2 hPa 0,0 l/m 2 min 0 min 0,0 UV-I 248 W/m 15,4 km/h (3 Bft)
18.04.2014 09:28 8,3 C 7,2 C 84 % 1014,3 hPa 0,0 l/m 2 min 0 min 0,0 UV-I 267 W/m 12,9 km/h (3 Bft)
18.04.2014 09:30 8,2 C 7,2 C 83 % 1014,3 hPa 0,0 l/m 2 min 0 min 0,0 UV-I 271 W/m 25,7 km/h (4 Bft)
18.04.2014 09:32 8,2 C 7,8 C 83 % 1014,2 hPa 0,0 l/m 2 min 0 min 0,0 UV-I 248 W/m 20,6 km/h (4 Bft)
18.04.2014 09:34 8,2 C 7,8 C 82 % 1014,2 hPa 0,0 l/m 2 min 0 min 0,0 UV-I 283 W/m 18,0 km/h (3 Bft)
18.04.2014 09:36 8,2 C 7,8 C 82 % 1014,2 hPa 0,0 l/m 0 min 0 min 0,0 UV-I 248 W/m 25,7 km/h (4 Bft)
18.04.2014 09:38 8,3 C 7,8 C 82 % 1014,3 hPa 0,0 l/m 0 min 0 min 0,0 UV-I 229 W/m 23,2 km/h (4 Bft)
18.04.2014 09:40 8,3 C 7,8 C 81 % 1014,2 hPa 0,0 l/m 0 min 0 min 0,0 UV-I 209 W/m 20,6 km/h (4 Bft)
18.04.2014 09:42 8,3 C 7,8 C 80 % 1014,3 hPa 0,0 l/m 0 min 0 min 0,0 UV-I 206 W/m 18,0 km/h (3 Bft)
18.04.2014 09:44 8,3 C 7,8 C 80 % 1014,3 hPa 0,0 l/m 0 min 0 min 0,0 UV-I 204 W/m 15,4 km/h (3 Bft)
18.04.2014 09:46 8,3 C 7,8 C 79 % 1014,3 hPa 0,0 l/m 0 min 0 min 0,0 UV-I 207 W/m 20,6 km/h (4 Bft)
18.04.2014 09:48 8,3 C 7,8 C 79 % 1014,3 hPa 0,0 l/m 0 min 0 min 0,0 UV-I 237 W/m 15,4 km/h (3 Bft)
18.04.2014 09:50 8,3 C 8,9 C 80 % 1014,3 hPa 0,0 l/m 2 min 0 min 0,0 UV-I 387 W/m 20,6 km/h (4 Bft)
18.04.2014 09:52 8,4 C 8,9 C 80 % 1014,3 hPa 0,0 l/m 2 min 0 min 0,5 UV-I 445 W/m 23,2 km/h (4 Bft)
18.04.2014 09:54 8,4 C 8,3 C 80 % 1014,4 hPa 0,0 l/m 0 min 0 min 0,5 UV-I 127 W/m 15,4 km/h (3 Bft)
18.04.2014 09:56 8,5 C 8,3 C 80 % 1014,4 hPa 0,0 l/m 2 min 0 min 0,6 UV-I 531 W/m 20,6 km/h (4 Bft)
18.04.2014 09:58 8,7 C 8,9 C 81 % 1014,4 hPa 0,0 l/m 0 min 0 min 0,5 UV-I 193 W/m 23,2 km/h (4 Bft)
18.04.2014 10:00 8,8 C 8,9 C 81 % 1014,4 hPa 0,0 l/m 2 min 0 min 0,7 UV-I 504 W/m 15,4 km/h (3 Bft)
18.04.2014 10:02 9,0 C 8,9 C 80 % 1014,4 hPa 0,0 l/m 2 min 0 min 0,0 UV-I 580 W/m 15,4 km/h (3 Bft)
18.04.2014 10:06 9,2 C 8,9 C 80 % 1014,5 hPa 0,0 l/m 2 min 0 min 0,7 UV-I 599 W/m 28,3 km/h (4 Bft)
18.04.2014 10:08 9,1 C 8,9 C 79 % 1014,4 hPa 0,0 l/m 0 min 0 min 0,0 UV-I 272 W/m 15,4 km/h (3 Bft)
18.04.2014 10:10 9,1 C 9,4 C 79 % 1014,4 hPa 0,0 l/m 0 min 0 min 0,0 UV-I 272 W/m 18,0 km/h (3 Bft)
18.04.2014 10:12 9,1 C 8,9 C 80 % 1014,5 hPa 0,0 l/m 0 min 0 min 0,0 UV-I 176 W/m 18,0 km/h (3 Bft)
18.04.2014 10:14 9,1 C 8,9 C 80 % 1014,5 hPa 0,0 l/m 0 min 0 min 0,8 UV-I 202 W/m 20,6 km/h (4 Bft)
18.04.2014 10:16 9,1 C 8,9 C 80 % 1014,5 hPa 0,0 l/m 2 min 0 min 0,0 UV-I 608 W/m 15,4 km/h (3 Bft)
18.04.2014 10:18 9,1 C 8,9 C 80 % 1014,5 hPa 0,0 l/m 2 min 0 min 0,0 UV-I 608 W/m 18,0 km/h (3 Bft)
18.04.2014 10:20 9,0 C 8,3 C 78 % 1014,5 hPa 0,0 l/m 0 min 0 min 0,0 UV-I 151 W/m 25,7 km/h (4 Bft)
18.04.2014 10:22 8,9 C 8,9 C 78 % 1014,5 hPa 0,0 l/m 0 min 0 min 0,9 UV-I 151 W/m 18,0 km/h (3 Bft)
18.04.2014 10:24 8,9 C 8,9 C 78 % 1014,6 hPa 0,0 l/m 0 min 0 min 0,8 UV-I 308 W/m 10,3 km/h (2 Bft)
18.04.2014 10:26 9,0 C 8,9 C 78 % 1014,5 hPa 0,0 l/m 0 min 0 min 0,7 UV-I 308 W/m 18,0 km/h (3 Bft)
18.04.2014 10:28 9,0 C 8,9 C 78 % 1014,5 hPa 0,0 l/m 2 min 0 min 0,5 UV-I 336 W/m 18,0 km/h (3 Bft)
18.04.2014 10:30 9,1 C 8,9 C 76 % 1014,5 hPa 0,0 l/m 0 min 0 min 0,0 UV-I 274 W/m 12,9 km/h (3 Bft)
18.04.2014 10:32 9,2 C 9,4 C 77 % 1014,5 hPa 0,0 l/m 0 min 0 min 1,2 UV-I 265 W/m 10,3 km/h (2 Bft)
18.04.2014 10:34 9,3 C 9,4 C 77 % 1014,4 hPa 0,0 l/m 0 min 0 min 0,9 UV-I 265 W/m 10,3 km/h (2 Bft)
18.04.2014 10:36 9,5 C 9,4 C 77 % 1014,5 hPa 0,0 l/m 0 min 0 min 1,1 UV-I 265 W/m 15,4 km/h (3 Bft)
18.04.2014 10:38 9,7 C 10,0 C 76 % 1014,4 hPa 0,0 l/m 2 min 0 min 1,3 UV-I 689 W/m 15,4 km/h (3 Bft)
18.04.2014 10:40 9,9 C 10,0 C 75 % 1014,5 hPa 0,0 l/m 2 min 0 min 1,2 UV-I 689 W/m 18,0 km/h (3 Bft)
18.04.2014 10:42 9,9 C 9,4 C 73 % 1014,5 hPa 0,0 l/m 0 min 0 min 0,0 UV-I 186 W/m 18,0 km/h (3 Bft)
18.04.2014 10:44 9,8 C 9,4 C 72 % 1014,5 hPa 0,0 l/m 0 min 0 min 0,0 UV-I 243 W/m 25,7 km/h (4 Bft)
18.04.2014 10:46 9,6 C 9,4 C 71 % 1014,5 hPa 0,0 l/m 0 min 0 min 0,0 UV-I 251 W/m 23,2 km/h (4 Bft)
18.04.2014 10:48 9,4 C 8,9 C 71 % 1014,5 hPa 0,0 l/m 0 min 0 min 0,0 UV-I 229 W/m 23,2 km/h (4 Bft)
18.04.2014 10:50 9,3 C 8,9 C 72 % 1014,6 hPa 0,0 l/m 0 min 0 min 0,0 UV-I 295 W/m 15,4 km/h (3 Bft)
18.04.2014 10:52 9,5 C 9,4 C 73 % 1014,6 hPa 0,0 l/m 0 min 0 min 0,8 UV-I 295 W/m 10,3 km/h (2 Bft)
18.04.2014 10:54 9,6 C 9,4 C 72 % 1014,6 hPa 0,0 l/m 0 min 0 min 0,0 UV-I 295 W/m 23,2 km/h (4 Bft)
18.04.2014 10:56 9,6 C 9,4 C 71 % 1014,6 hPa 0,0 l/m 0 min 0 min 0,0 UV-I 202 W/m 18,0 km/h (3 Bft)
18.04.2014 10:58 9,5 C 8,9 C 69 % 1014,7 hPa 0,0 l/m 0 min 0 min 0,0 UV-I 220 W/m 23,2 km/h (4 Bft)
18.04.2014 11:00 9,4 C 8,9 C 69 % 1014,7 hPa 0,0 l/m 0 min 0 min 0,5 UV-I 271 W/m 23,2 km/h (4 Bft)
18.04.2014 11:02 9,4 C 9,4 C 70 % 1014,6 hPa 0,0 l/m 0 min 0 min 0,5 UV-I 299 W/m 23,2 km/h (4 Bft)
18.04.2014 11:06 9,5 C 9,4 C 69 % 1014,7 hPa 0,0 l/m 0 min 0 min 0,0 UV-I 272 W/m 23,2 km/h (4 Bft)
18.04.2014 11:08 9,6 C 9,4 C 69 % 1014,7 hPa 0,0 l/m 0 min 0 min 0,5 UV-I 276 W/m 10,3 km/h (2 Bft)
18.04.2014 11:10 9,7 C 10,0 C 68 % 1014,7 hPa 0,0 l/m 0 min 0 min 1,8 UV-I 276 W/m 12,9 km/h (3 Bft)
18.04.2014 11:12 9,9 C 10,6 C 68 % 1014,7 hPa 0,0 l/m 2 min 0 min 1,9 UV-I 865 W/m 25,7 km/h (4 Bft)
18.04.2014 11:14 10,1 C 10,6 C 68 % 1014,6 hPa 0,0 l/m 2 min 0 min 2,0 UV-I 860 W/m 25,7 km/h (4 Bft)
18.04.2014 11:16 10,2 C 10,6 C 66 % 1014,7 hPa 0,0 l/m 2 min 0 min 1,1 UV-I 432 W/m 25,7 km/h (4 Bft)
18.04.2014 11:18 10,4 C 10,6 C 68 % 1014,7 hPa 0,0 l/m 2 min 0 min 0,8 UV-I 432 W/m 23,2 km/h (4 Bft)
18.04.2014 11:20 10,3 C 10,0 C 66 % 1014,7 hPa 0,0 l/m 0 min 0 min 0,8 UV-I 332 W/m 18,0 km/h (3 Bft)
18.04.2014 11:22 10,2 C 10,0 C 66 % 1014,7 hPa 0,0 l/m 0 min 0 min 0,9 UV-I 274 W/m 15,4 km/h (3 Bft)
18.04.2014 11:24 10,1 C 10,0 C 67 % 1014,7 hPa 0,0 l/m 0 min 0 min 2,0 UV-I 274 W/m 23,2 km/h (4 Bft)
18.04.2014 11:26 10,0 C 10,0 C 67 % 1014,7 hPa 0,0 l/m 2 min 0 min 2,0 UV-I 814 W/m 23,2 km/h (4 Bft)
18.04.2014 11:28 10,1 C 10,6 C 68 % 1014,7 hPa 0,0 l/m 2 min 0 min 2,1 UV-I 710 W/m 18,0 km/h (3 Bft)
18.04.2014 11:30 10,2 C 10,0 C 67 % 1014,7 hPa 0,0 l/m 2 min 0 min 1,3 UV-I 631 W/m 23,2 km/h (4 Bft)
18.04.2014 11:32 10,3 C 10,6 C 67 % 1014,7 hPa 0,0 l/m 2 min 0 min 2,2 UV-I 631 W/m 12,9 km/h (3 Bft)
18.04.2014 11:34 10,4 C 10,0 C 67 % 1014,6 hPa 0,0 l/m 2 min 0 min 0,9 UV-I 795 W/m 28,3 km/h (4 Bft)
18.04.2014 11:36 10,3 C 10,0 C 67 % 1014,7 hPa 0,0 l/m 2 min 0 min 2,2 UV-I 795 W/m 23,2 km/h (4 Bft)
18.04.2014 11:38 10,4 C 10,6 C 67 % 1014,5 hPa 0,0 l/m 2 min 0 min 2,2 UV-I 751 W/m 15,4 km/h (3 Bft)
18.04.2014 11:40 10,6 C 10,6 C 64 % 1014,5 hPa 0,0 l/m 2 min 0 min 2,2 UV-I 798 W/m 18,0 km/h (3 Bft)
18.04.2014 11:42 10,7 C 10,6 C 64 % 1014,6 hPa 0,0 l/m 2 min 0 min 2,3 UV-I 798 W/m 23,2 km/h (4 Bft)
18.04.2014 11:44 10,7 C 10,6 C 64 % 1014,6 hPa 0,0 l/m 0 min 0 min 1,1 UV-I 364 W/m 18,0 km/h (3 Bft)
18.04.2014 11:46 10,7 C 10,6 C 65 % 1014,6 hPa 0,0 l/m 2 min 0 min 1,2 UV-I 381 W/m 23,2 km/h (4 Bft)
18.04.2014 11:48 10,7 C 10,6 C 65 % 1014,6 hPa 0,0 l/m 0 min 0 min 1,2 UV-I 381 W/m 20,6 km/h (4 Bft)
18.04.2014 11:50 10,7 C 10,6 C 65 % 1014,6 hPa 0,0 l/m 2 min 0 min 2,2 UV-I 939 W/m 18,0 km/h (3 Bft)
18.04.2014 11:52 10,8 C 10,6 C 65 % 1014,7 hPa 0,0 l/m 0 min 0 min 0,9 UV-I 309 W/m 33,5 km/h (5 Bft)
18.04.2014 11:54 10,6 C 10,6 C 64 % 1014,6 hPa 0,0 l/m 0 min 0 min 1,5 UV-I 311 W/m 18,0 km/h (3 Bft)
18.04.2014 11:56 10,5 C 10,6 C 65 % 1014,7 hPa 0,0 l/m 0 min 0 min 2,3 UV-I 287 W/m 23,2 km/h (4 Bft)
18.04.2014 11:58 10,5 C 10,6 C 65 % 1014,7 hPa 0,0 l/m 0 min 0 min 0,9 UV-I 287 W/m 23,2 km/h (4 Bft)
18.04.2014 12:00 10,4 C 10,6 C 65 % 1014,6 hPa 0,0 l/m 0 min 0 min 2,4 UV-I 376 W/m 23,2 km/h (4 Bft)
18.04.2014 12:02 10,6 C 11,1 C 65 % 1014,7 hPa 0,0 l/m 0 min 0 min 2,1 UV-I 376 W/m 15,4 km/h (3 Bft)
18.04.2014 12:06 11,2 C 12,2 C 66 % 1014,6 hPa 0,0 l/m 0 min 0 min 1,2 UV-I 264 W/m 18,0 km/h (3 Bft)
18.04.2014 12:08 11,3 C 11,7 C 64 % 1014,6 hPa 0,0 l/m 0 min 0 min 0,9 UV-I 346 W/m 12,9 km/h (3 Bft)
18.04.2014 12:10 11,2 C 11,1 C 64 % 1014,6 hPa 0,0 l/m 0 min 0 min 2,5 UV-I 246 W/m 18,0 km/h (3 Bft)
18.04.2014 12:12 11,1 C 11,1 C 63 % 1014,7 hPa 0,0 l/m 0 min 0 min 0,9 UV-I 253 W/m 15,4 km/h (3 Bft)
18.04.2014 12:14 10,9 C 11,1 C 63 % 1014,7 hPa 0,0 l/m 0 min 0 min 1,6 UV-I 359 W/m 15,4 km/h (3 Bft)
18.04.2014 12:16 10,9 C 11,7 C 65 % 1014,8 hPa 0,0 l/m 2 min 0 min 2,6 UV-I 1051 W/m 15,4 km/h (3 Bft)
18.04.2014 12:18 11,1 C 12,2 C 64 % 1014,8 hPa 0,0 l/m 2 min 0 min 2,9 UV-I 1051 W/m 15,4 km/h (3 Bft)
18.04.2014 12:20 11,2 C 11,7 C 63 % 1014,7 hPa 0,0 l/m 0 min 0 min 1,1 UV-I 366 W/m 25,7 km/h (4 Bft)
18.04.2014 12:22 11,2 C 11,7 C 63 % 1014,7 hPa 0,0 l/m 0 min 0 min 2,1 UV-I 313 W/m 18,0 km/h (3 Bft)
18.04.2014 12:24 11,2 C 11,7 C 63 % 1014,8 hPa 0,0 l/m 0 min 0 min 1,0 UV-I 200 W/m 15,4 km/h (3 Bft)
18.04.2014 12:26 11,2 C 12,2 C 62 % 1014,7 hPa 0,0 l/m 2 min 0 min 2,8 UV-I 805 W/m 20,6 km/h (4 Bft)
18.04.2014 12:28 11,2 C 12,2 C 62 % 1014,7 hPa 0,0 l/m 2 min 0 min 3,0 UV-I 919 W/m 18,0 km/h (3 Bft)
18.04.2014 12:30 11,3 C 12,2 C 61 % 1014,6 hPa 0,0 l/m 2 min 0 min 2,3 UV-I 1005 W/m 28,3 km/h (4 Bft)
18.04.2014 12:32 11,5 C 12,2 C 62 % 1014,7 hPa 0,0 l/m 2 min 0 min 1,5 UV-I 962 W/m 20,6 km/h (4 Bft)
18.04.2014 12:34 11,5 C 11,7 C 61 % 1014,6 hPa 0,0 l/m 0 min 0 min 1,5 UV-I 396 W/m 18,0 km/h (3 Bft)
18.04.2014 12:36 11,7 C 12,2 C 61 % 1014,6 hPa 0,0 l/m 2 min 0 min 1,7 UV-I 905 W/m 20,6 km/h (4 Bft)
18.04.2014 12:38 11,8 C 12,2 C 60 % 1014,6 hPa 0,0 l/m 2 min 0 min 2,8 UV-I 896 W/m 23,2 km/h (4 Bft)
18.04.2014 12:40 11,8 C 12,2 C 62 % 1014,6 hPa 0,0 l/m 0 min 0 min 1,2 UV-I 366 W/m 18,0 km/h (3 Bft)
18.04.2014 12:42 11,7 C 12,2 C 60 % 1014,6 hPa 0,0 l/m 0 min 0 min 1,1 UV-I 366 W/m 15,4 km/h (3 Bft)
18.04.2014 12:44 11,6 C 12,2 C 60 % 1014,6 hPa 0,0 l/m 2 min 0 min 1,3 UV-I 411 W/m 2,6 km/h (1 Bft)
18.04.2014 12:46 11,8 C 12,8 C 61 % 1014,6 hPa 0,0 l/m 2 min 0 min 2,6 UV-I 1035 W/m 10,3 km/h (2 Bft)
18.04.2014 12:48 11,9 C 12,2 C 61 % 1014,6 hPa 0,0 l/m 2 min 0 min 1,0 UV-I 1035 W/m 20,6 km/h (4 Bft)
18.04.2014 12:50 11,6 C 12,2 C 61 % 1014,6 hPa 0,0 l/m 0 min 0 min 0,8 UV-I 279 W/m 18,0 km/h (3 Bft)
18.04.2014 12:52 11,4 C 11,7 C 62 % 1014,6 hPa 0,0 l/m 0 min 0 min 0,6 UV-I 272 W/m 18,0 km/h (3 Bft)
18.04.2014 12:54 11,3 C 11,1 C 62 % 1014,6 hPa 0,0 l/m 0 min 0 min 0,0 UV-I 211 W/m 18,0 km/h (3 Bft)
18.04.2014 12:56 11,1 C 10,6 C 61 % 1014,6 hPa 0,0 l/m 0 min 0 min 0,0 UV-I 190 W/m 23,2 km/h (4 Bft)
18.04.2014 12:58 11,0 C 10,6 C 62 % 1014,7 hPa 0,0 l/m 0 min 0 min 0,0 UV-I 151 W/m 23,2 km/h (4 Bft)
18.04.2014 13:00 10,9 C 10,0 C 63 % 1014,7 hPa 0,0 l/m 0 min 0 min 0,0 UV-I 113 W/m 25,7 km/h (4 Bft)
18.04.2014 13:02 10,7 C 9,4 C 64 % 1014,9 hPa 0,0 l/m 0 min 2 min 0,0 UV-I 116 W/m 30,9 km/h (5 Bft)
18.04.2014 13:06 10,2 C 8,3 C 68 % 1014,8 hPa 0,0 l/m 0 min 2 min 0,6 UV-I 255 W/m 25,7 km/h (4 Bft)
18.04.2014 13:08 9,9 C 8,3 C 70 % 1014,8 hPa 0,0 l/m 0 min 2 min 0,8 UV-I 301 W/m 20,6 km/h (4 Bft)
18.04.2014 13:10 9,8 C 8,9 C 72 % 1014,8 hPa 0,0 l/m 0 min 0 min 0,9 UV-I 334 W/m 15,4 km/h (3 Bft)
18.04.2014 13:12 9,9 C 9,4 C 72 % 1014,8 hPa 0,0 l/m 0 min 2 min 1,1 UV-I 399 W/m 15,4 km/h (3 Bft)
18.04.2014 13:14 9,9 C 10,0 C 65 % 1014,8 hPa 0,0 l/m 2 min 0 min 1,2 UV-I 784 W/m 25,7 km/h (4 Bft)
18.04.2014 13:16 10,2 C 10,6 C 65 % 1014,8 hPa 0,0 l/m 2 min 0 min 1,1 UV-I 784 W/m 20,6 km/h (4 Bft)
18.04.2014 13:18 10,4 C 10,6 C 65 % 1014,8 hPa 0,0 l/m 0 min 0 min 1,2 UV-I 311 W/m 18,0 km/h (3 Bft)
18.04.2014 13:20 10,4 C 10,6 C 66 % 1014,8 hPa 0,0 l/m 0 min 0 min 1,3 UV-I 373 W/m 12,9 km/h (3 Bft)
18.04.2014 13:22 10,5 C 10,6 C 66 % 1014,8 hPa 0,0 l/m 0 min 0 min 1,3 UV-I 308 W/m 15,4 km/h (3 Bft)
18.04.2014 13:24 10,3 C 10,6 C 65 % 1014,7 hPa 0,0 l/m 0 min 0 min 1,3 UV-I 329 W/m 23,2 km/h (4 Bft)
18.04.2014 13:26 10,4 C 10,6 C 66 % 1014,7 hPa 0,0 l/m 2 min 0 min 1,2 UV-I 944 W/m 18,0 km/h (3 Bft)
18.04.2014 13:28 10,7 C 10,6 C 66 % 1014,7 hPa 0,0 l/m 2 min 0 min 1,2 UV-I 805 W/m 15,4 km/h (3 Bft)
18.04.2014 13:30 11,0 C 11,1 C 67 % 1014,7 hPa 0,0 l/m 2 min 0 min 1,1 UV-I 805 W/m 12,9 km/h (3 Bft)
18.04.2014 13:32 11,3 C 11,1 C 64 % 1014,6 hPa 0,0 l/m 2 min 0 min 1,2 UV-I 814 W/m 23,2 km/h (4 Bft)
18.04.2014 13:34 11,6 C 11,7 C 65 % 1014,6 hPa 0,0 l/m 2 min 0 min 1,2 UV-I 907 W/m 20,6 km/h (4 Bft)
18.04.2014 13:36 11,9 C 12,2 C 65 % 1014,6 hPa 0,0 l/m 2 min 0 min 1,5 UV-I 870 W/m 20,6 km/h (4 Bft)
18.04.2014 13:38 12,3 C 12,8 C 63 % 1014,6 hPa 0,0 l/m 2 min 0 min 1,4 UV-I 949 W/m 30,9 km/h (5 Bft)
18.04.2014 13:40 12,2 C 12,2 C 61 % 1014,6 hPa 0,0 l/m 2 min 0 min 1,5 UV-I 949 W/m 28,3 km/h (4 Bft)
18.04.2014 13:42 12,0 C 12,2 C 60 % 1014,6 hPa 0,0 l/m 0 min 0 min 1,3 UV-I 373 W/m 30,9 km/h (5 Bft)
18.04.2014 13:44 11,9 C 11,7 C 60 % 1014,6 hPa 0,0 l/m 0 min 0 min 1,1 UV-I 288 W/m 28,3 km/h (4 Bft)
18.04.2014 14:00 12,1 C 11,7 C 58 % 1014,6 hPa 0,0 l/m 2 min 0 min 2,9 UV-I 860 W/m 25,7 km/h (4 Bft)
18.04.2014 14:04 12,1 C 11,7 C 59 % 1014,6 hPa 0,0 l/m 0 min 0 min 0,7 UV-I 160 W/m 33,5 km/h (5 Bft)
18.04.2014 14:08 11,8 C 11,1 C 57 % 1014,6 hPa 0,0 l/m 0 min 0 min 1,1 UV-I 148 W/m 28,3 km/h (4 Bft)
18.04.2014 14:10 11,7 C 11,7 C 57 % 1014,5 hPa 0,0 l/m 2 min 0 min 3,0 UV-I 812 W/m 20,6 km/h (4 Bft)
18.04.2014 14:12 12,0 C 11,7 C 58 % 1014,5 hPa 0,0 l/m 2 min 0 min 3,1 UV-I 830 W/m 15,4 km/h (3 Bft)
18.04.2014 14:14 12,4 C 12,2 C 56 % 1014,4 hPa 0,0 l/m 2 min 0 min 3,1 UV-I 891 W/m 12,9 km/h (3 Bft)
18.04.2014 14:16 12,7 C 12,8 C 57 % 1014,4 hPa 0,0 l/m 2 min 0 min 1,8 UV-I 977 W/m 15,4 km/h (3 Bft)
18.04.2014 14:18 12,9 C 12,8 C 54 % 1014,4 hPa 0,0 l/m 2 min 0 min 0,9 UV-I 977 W/m 23,2 km/h (4 Bft)
18.04.2014 14:20 12,6 C 12,2 C 51 % 1014,4 hPa 0,0 l/m 0 min 0 min 0,7 UV-I 241 W/m 28,3 km/h (4 Bft)
18.04.2014 14:22 12,3 C 11,7 C 52 % 1014,4 hPa 0,0 l/m 0 min 0 min 0,8 UV-I 260 W/m 20,6 km/h (4 Bft)
18.04.2014 14:24 12,1 C 11,7 C 53 % 1014,5 hPa 0,0 l/m 0 min 0 min 1,2 UV-I 287 W/m 20,6 km/h (4 Bft)
18.04.2014 14:26 11,9 C 11,7 C 54 % 1014,5 hPa 0,0 l/m 0 min 0 min 1,9 UV-I 287 W/m 23,2 km/h (4 Bft)
18.04.2014 14:28 11,9 C 11,7 C 57 % 1014,5 hPa 0,0 l/m 2 min 0 min 2,9 UV-I 830 W/m 25,7 km/h (4 Bft)
18.04.2014 14:30 12,1 C 11,7 C 55 % 1014,4 hPa 0,0 l/m 2 min 0 min 2,9 UV-I 791 W/m 23,2 km/h (4 Bft)
18.04.2014 14:32 12,3 C 11,7 C 55 % 1014,4 hPa 0,0 l/m 2 min 0 min 2,9 UV-I 789 W/m 15,4 km/h (3 Bft)
18.04.2014 14:34 12,6 C 12,2 C 56 % 1014,4 hPa 0,0 l/m 2 min 0 min 2,8 UV-I 803 W/m 23,2 km/h (4 Bft)
18.04.2014 14:36 12,7 C 12,2 C 53 % 1014,5 hPa 0,0 l/m 2 min 0 min 1,1 UV-I 724 W/m 28,3 km/h (4 Bft)
18.04.2014 14:38 12,4 C 11,7 C 54 % 1014,4 hPa 0,0 l/m 0 min 0 min 2,9 UV-I 250 W/m 23,2 km/h (4 Bft)
18.04.2014 14:40 12,4 C 12,8 C 55 % 1014,4 hPa 0,0 l/m 2 min 0 min 2,9 UV-I 942 W/m 18,0 km/h (3 Bft)
18.04.2014 14:42 12,8 C 13,3 C 54 % 1014,5 hPa 0,0 l/m 2 min 0 min 2,7 UV-I 970 W/m 20,6 km/h (4 Bft)
18.04.2014 14:44 12,8 C 13,3 C 53 % 1014,3 hPa 0,0 l/m 2 min 0 min 2,8 UV-I 970 W/m 25,7 km/h (4 Bft)
18.04.2014 14:46 12,9 C 13,3 C 53 % 1014,5 hPa 0,0 l/m 2 min 0 min 1,4 UV-I 970 W/m 33,5 km/h (5 Bft)
18.04.2014 14:48 12,7 C 12,8 C 53 % 1014,5 hPa 0,0 l/m 2 min 0 min 0,8 UV-I 610 W/m 30,9 km/h (5 Bft)
18.04.2014 14:50 12,5 C 12,2 C 54 % 1014,5 hPa 0,0 l/m 0 min 0 min 0,5 UV-I 160 W/m 25,7 km/h (4 Bft)
18.04.2014 14:52 12,2 C 11,7 C 53 % 1014,6 hPa 0,0 l/m 0 min 0 min 0,0 UV-I 142 W/m 36,0 km/h (5 Bft)
18.04.2014 14:54 11,8 C 11,1 C 54 % 1014,6 hPa 0,0 l/m 0 min 0 min 0,5 UV-I 149 W/m 25,7 km/h (4 Bft)
18.04.2014 14:56 11,6 C 11,1 C 55 % 1014,6 hPa 0,0 l/m 0 min 0 min 0,6 UV-I 165 W/m 23,2 km/h (4 Bft)
18.04.2014 14:58 11,4 C 10,6 C 56 % 1014,7 hPa 0,0 l/m 0 min 0 min 0,7 UV-I 167 W/m 23,2 km/h (4 Bft)
18.04.2014 15:00 11,3 C 10,6 C 57 % 1014,7 hPa 0,0 l/m 0 min 0 min 0,8 UV-I 151 W/m 20,6 km/h (4 Bft)
18.04.2014 15:02 11,2 C 10,6 C 58 % 1014,7 hPa 0,0 l/m 0 min 0 min 2,6 UV-I 206 W/m 12,9 km/h (3 Bft)
18.04.2014 15:04 11,3 C 11,1 C 58 % 1014,6 hPa 0,0 l/m 2 min 0 min 2,6 UV-I 752 W/m 25,7 km/h (4 Bft)
18.04.2014 15:06 11,6 C 11,7 C 57 % 1014,6 hPa 0,0 l/m 2 min 0 min 2,5 UV-I 731 W/m 20,6 km/h (4 Bft)
18.04.2014 15:08 12,0 C 11,7 C 55 % 1014,6 hPa 0,0 l/m 2 min 0 min 2,5 UV-I 735 W/m 12,9 km/h (3 Bft)
18.04.2014 15:10 12,4 C 12,2 C 55 % 1014,5 hPa 0,0 l/m 2 min 0 min 2,5 UV-I 754 W/m 12,9 km/h (3 Bft)
18.04.2014 15:12 12,6 C 12,2 C 53 % 1014,5 hPa 0,0 l/m 2 min 0 min 2,5 UV-I 766 W/m 23,2 km/h (4 Bft)
18.04.2014 15:14 12,8 C 12,2 C 52 % 1014,6 hPa 0,0 l/m 2 min 0 min 1,1 UV-I 740 W/m 20,6 km/h (4 Bft)
18.04.2014 15:16 12,7 C 12,2 C 53 % 1014,5 hPa 0,0 l/m 2 min 0 min 2,5 UV-I 788 W/m 18,0 km/h (3 Bft)
18.04.2014 15:18 13,0 C 12,8 C 55 % 1014,6 hPa 0,0 l/m 2 min 0 min 2,5 UV-I 780 W/m 7,7 km/h (2 Bft)
18.04.2014 15:20 13,3 C 13,3 C 52 % 1014,5 hPa 0,0 l/m 2 min 0 min 2,5 UV-I 775 W/m 20,6 km/h (4 Bft)
18.04.2014 15:22 13,5 C 12,8 C 55 % 1014,5 hPa 0,0 l/m 2 min 0 min 1,0 UV-I 786 W/m 15,4 km/h (3 Bft)
18.04.2014 15:24 13,4 C 12,8 C 50 % 1014,6 hPa 0,0 l/m 0 min 0 min 2,4 UV-I 141 W/m 18,0 km/h (3 Bft)
18.04.2014 15:26 13,1 C 12,8 C 51 % 1014,6 hPa 0,0 l/m 2 min 0 min 2,3 UV-I 773 W/m 20,6 km/h (4 Bft)
18.04.2014 15:28 12,9 C 12,2 C 51 % 1014,6 hPa 0,0 l/m 2 min 0 min 2,4 UV-I 773 W/m 18,0 km/h (3 Bft)
18.04.2014 15:30 12,9 C 12,8 C 53 % 1014,6 hPa 0,0 l/m 2 min 0 min 2,3 UV-I 752 W/m 25,7 km/h (4 Bft)
18.04.2014 15:32 13,1 C 12,8 C 51 % 1014,5 hPa 0,0 l/m 2 min 0 min 2,4 UV-I 780 W/m 12,9 km/h (3 Bft)
18.04.2014 15:34 13,6 C 13,3 C 52 % 1014,5 hPa 0,0 l/m 2 min 0 min 2,3 UV-I 791 W/m 25,7 km/h (4 Bft)
18.04.2014 15:36 13,5 C 13,3 C 50 % 1014,5 hPa 0,0 l/m 2 min 0 min 2,3 UV-I 803 W/m 25,7 km/h (4 Bft)
18.04.2014 15:38 13,8 C 13,9 C 53 % 1014,5 hPa 0,0 l/m 2 min 0 min 2,3 UV-I 840 W/m 18,0 km/h (3 Bft)
18.04.2014 15:40 13,9 C 13,9 C 51 % 1014,5 hPa 0,0 l/m 2 min 0 min 2,4 UV-I 925 W/m 18,0 km/h (3 Bft)
18.04.2014 15:42 13,7 C 13,9 C 51 % 1014,5 hPa 0,0 l/m 2 min 0 min 1,7 UV-I 918 W/m 23,2 km/h (4 Bft)
18.04.2014 15:44 13,5 C 13,9 C 51 % 1014,5 hPa 0,0 l/m 0 min 0 min 0,9 UV-I 341 W/m 18,0 km/h (3 Bft)
18.04.2014 15:46 13,2 C 12,8 C 51 % 1014,5 hPa 0,0 l/m 0 min 0 min 1,0 UV-I 330 W/m 23,2 km/h (4 Bft)
18.04.2014 15:48 13,0 C 12,8 C 52 % 1014,4 hPa 0,0 l/m 2 min 0 min 0,6 UV-I 914 W/m 15,4 km/h (3 Bft)
18.04.2014 15:50 13,0 C 12,8 C 54 % 1014,5 hPa 0,0 l/m 0 min 0 min 0,0 UV-I 271 W/m 18,0 km/h (3 Bft)
18.04.2014 15:52 12,9 C 12,8 C 54 % 1014,4 hPa 0,0 l/m 0 min 0 min 0,0 UV-I 220 W/m 12,9 km/h (3 Bft)
18.04.2014 15:54 12,8 C 12,2 C 55 % 1014,4 hPa 0,0 l/m 0 min 0 min 0,0 UV-I 202 W/m 20,6 km/h (4 Bft)
18.04.2014 15:56 12,7 C 12,2 C 55 % 1014,5 hPa 0,0 l/m 0 min 0 min 0,0 UV-I 211 W/m 23,2 km/h (4 Bft)
18.04.2014 15:58 12,6 C 12,2 C 55 % 1014,4 hPa 0,0 l/m 0 min 0 min 0,0 UV-I 211 W/m 20,6 km/h (4 Bft)
18.04.2014 16:00 12,6 C 12,2 C 55 % 1014,5 hPa 0,0 l/m 0 min 0 min 0,0 UV-I 195 W/m 25,7 km/h (4 Bft)
18.04.2014 16:02 12,4 C 12,2 C 55 % 1014,5 hPa 0,0 l/m 0 min 0 min 0,0 UV-I 236 W/m 20,6 km/h (4 Bft)
18.04.2014 16:04 12,3 C 12,2 C 55 % 1014,5 hPa 0,0 l/m 0 min 0 min 0,0 UV-I 281 W/m 20,6 km/h (4 Bft)
18.04.2014 16:06 12,4 C 12,2 C 55 % 1014,5 hPa 0,0 l/m 0 min 0 min 0,7 UV-I 255 W/m 7,7 km/h (2 Bft)
18.04.2014 16:08 12,4 C 12,2 C 56 % 1014,5 hPa 0,0 l/m 0 min 0 min 0,0 UV-I 218 W/m 18,0 km/h (3 Bft)
18.04.2014 16:10 12,4 C 12,2 C 56 % 1014,5 hPa 0,0 l/m 0 min 0 min 0,0 UV-I 195 W/m 12,9 km/h (3 Bft)
18.04.2014 16:12 12,4 C 12,2 C 57 % 1014,5 hPa 0,0 l/m 0 min 0 min 0,0 UV-I 181 W/m 18,0 km/h (3 Bft)
18.04.2014 16:14 12,4 C 11,7 C 56 % 1014,5 hPa 0,0 l/m 0 min 0 min 0,0 UV-I 162 W/m 30,9 km/h (5 Bft)
18.04.2014 16:16 12,3 C 11,7 C 57 % 1014,5 hPa 0,0 l/m 0 min 2 min 0,0 UV-I 151 W/m 23,2 km/h (4 Bft)
18.04.2014 16:18 12,1 C 11,7 C 57 % 1014,5 hPa 0,0 l/m 0 min 0 min 0,0 UV-I 169 W/m 23,2 km/h (4 Bft)
18.04.2014 16:20 12,1 C 11,7 C 58 % 1014,4 hPa 0,0 l/m 0 min 0 min 0,0 UV-I 174 W/m 18,0 km/h (3 Bft)
18.04.2014 16:22 11,9 C 11,7 C 58 % 1014,4 hPa 0,0 l/m 0 min 0 min 0,6 UV-I 193 W/m 20,6 km/h (4 Bft)
18.04.2014 16:24 11,9 C 11,7 C 58 % 1014,4 hPa 0,0 l/m 0 min 0 min 1,1 UV-I 195 W/m 18,0 km/h (3 Bft)
18.04.2014 16:26 11,9 C 11,7 C 58 % 1014,4 hPa 0,0 l/m 0 min 0 min 1,5 UV-I 141 W/m 20,6 km/h (4 Bft)
18.04.2014 16:28 12,0 C 12,2 C 58 % 1014,4 hPa 0,0 l/m 2 min 0 min 1,4 UV-I 612 W/m 15,4 km/h (3 Bft)
18.04.2014 16:30 12,3 C 12,8 C 58 % 1014,4 hPa 0,0 l/m 2 min 0 min 1,4 UV-I 594 W/m 18,0 km/h (3 Bft)
18.04.2014 16:32 12,5 C 13,3 C 58 % 1014,4 hPa 0,0 l/m 2 min 0 min 1,4 UV-I 587 W/m 20,6 km/h (4 Bft)
18.04.2014 16:34 12,9 C 13,9 C 58 % 1014,4 hPa 0,0 l/m 2 min 0 min 1,3 UV-I 589 W/m 15,4 km/h (3 Bft)
18.04.2014 16:36 13,2 C 13,9 C 57 % 1014,5 hPa 0,0 l/m 2 min 0 min 1,3 UV-I 559 W/m 7,7 km/h (2 Bft)
18.04.2014 16:38 13,1 C 13,3 C 54 % 1014,3 hPa 0,0 l/m 2 min 0 min 0,5 UV-I 594 W/m 20,6 km/h (4 Bft)
18.04.2014 16:40 12,9 C 12,8 C 55 % 1014,3 hPa 0,0 l/m 0 min 0 min 0,0 UV-I 102 W/m 18,0 km/h (3 Bft)
18.04.2014 16:42 12,7 C 12,2 C 56 % 1014,3 hPa 0,0 l/m 0 min 0 min 0,5 UV-I 190 W/m 15,4 km/h (3 Bft)
18.04.2014 16:44 12,5 C 12,2 C 55 % 1014,3 hPa 0,0 l/m 0 min 0 min 0,5 UV-I 158 W/m 18,0 km/h (3 Bft)
18.04.2014 16:46 12,3 C 11,7 C 57 % 1014,2 hPa 0,0 l/m 0 min 0 min 0,5 UV-I 195 W/m 18,0 km/h (3 Bft)
18.04.2014 16:48 12,3 C 12,2 C 59 % 1014,3 hPa 0,0 l/m 0 min 0 min 0,5 UV-I 225 W/m 12,9 km/h (3 Bft)
18.04.2014 16:50 12,3 C 12,2 C 60 % 1014,4 hPa 0,0 l/m 0 min 0 min 0,0 UV-I 220 W/m 15,4 km/h (3 Bft)
18.04.2014 16:52 12,3 C 12,2 C 59 % 1014,5 hPa 0,0 l/m 0 min 0 min 0,0 UV-I 265 W/m 18,0 km/h (3 Bft)
18.04.2014 16:54 12,3 C 12,2 C 59 % 1014,2 hPa 0,0 l/m 0 min 0 min 0,0 UV-I 171 W/m 23,2 km/h (4 Bft)
18.04.2014 16:56 12,3 C 11,7 C 59 % 1014,4 hPa 0,0 l/m 0 min 0 min 0,0 UV-I 142 W/m 12,9 km/h (3 Bft)
18.04.2014 16:58 12,2 C 11,7 C 59 % 1014,4 hPa 0,0 l/m 0 min 0 min 0,0 UV-I 134 W/m 15,4 km/h (3 Bft)
18.04.2014 17:00 12,1 C 11,7 C 59 % 1014,3 hPa 0,0 l/m 0 min 0 min 0,0 UV-I 158 W/m 20,6 km/h (4 Bft)
18.04.2014 17:02 12,1 C 11,7 C 59 % 1014,2 hPa 0,0 l/m 0 min 0 min 0,0 UV-I 220 W/m 20,6 km/h (4 Bft)
18.04.2014 17:06 12,2 C 12,2 C 60 % 1014,3 hPa 0,0 l/m 0 min 0 min 0,0 UV-I 197 W/m 15,4 km/h (3 Bft)
18.04.2014 17:08 12,3 C 12,2 C 59 % 1014,3 hPa 0,0 l/m 2 min 0 min 0,0 UV-I 283 W/m 20,6 km/h (4 Bft)
18.04.2014 17:10 12,3 C 11,7 C 58 % 1014,3 hPa 0,0 l/m 0 min 0 min 0,0 UV-I 192 W/m 23,2 km/h (4 Bft)
18.04.2014 17:12 12,3 C 11,7 C 60 % 1014,3 hPa 0,0 l/m 0 min 0 min 0,8 UV-I 186 W/m 12,9 km/h (3 Bft)
18.04.2014 17:14 12,4 C 11,7 C 59 % 1014,3 hPa 0,0 l/m 0 min 0 min 0,0 UV-I 179 W/m 15,4 km/h (3 Bft)
18.04.2014 17:16 12,3 C 11,7 C 59 % 1014,3 hPa 0,0 l/m 0 min 0 min 0,0 UV-I 200 W/m 23,2 km/h (4 Bft)
18.04.2014 17:18 12,4 C 12,2 C 59 % 1014,2 hPa 0,0 l/m 2 min 0 min 0,0 UV-I 571 W/m 23,2 km/h (4 Bft)
18.04.2014 17:20 12,5 C 12,2 C 59 % 1014,3 hPa 0,0 l/m 0 min 0 min 0,7 UV-I 211 W/m 18,0 km/h (3 Bft)
18.04.2014 17:22 12,6 C 12,2 C 59 % 1014,2 hPa 0,0 l/m 2 min 0 min 0,7 UV-I 492 W/m 33,5 km/h (5 Bft)
18.04.2014 17:24 12,6 C 11,7 C 60 % 1014,1 hPa 0,0 l/m 2 min 0 min 0,6 UV-I 468 W/m 23,2 km/h (4 Bft)
18.04.2014 17:26 12,7 C 12,2 C 61 % 1014,1 hPa 0,0 l/m 2 min 0 min 0,6 UV-I 462 W/m 18,0 km/h (3 Bft)
18.04.2014 17:28 12,7 C 12,2 C 63 % 1014,1 hPa 0,0 l/m 2 min 0 min 0,6 UV-I 452 W/m 18,0 km/h (3 Bft)
18.04.2014 17:30 12,7 C 12,2 C 62 % 1014,1 hPa 0,0 l/m 2 min 0 min 0,6 UV-I 450 W/m 20,6 km/h (4 Bft)
18.04.2014 17:32 12,6 C 11,7 C 63 % 1014,2 hPa 0,0 l/m 2 min 0 min 0,6 UV-I 446 W/m 15,4 km/h (3 Bft)
18.04.2014 17:34 12,7 C 12,2 C 63 % 1014,2 hPa 0,0 l/m 2 min 0 min 0,5 UV-I 455 W/m 18,0 km/h (3 Bft)
18.04.2014 17:36 12,7 C 12,2 C 62 % 1014,3 hPa 0,0 l/m 2 min 0 min 0,5 UV-I 464 W/m 15,4 km/h (3 Bft)
18.04.2014 17:38 12,7 C 12,2 C 62 % 1014,2 hPa 0,0 l/m 2 min 0 min 0,5 UV-I 478 W/m 25,7 km/h (4 Bft)
18.04.2014 17:40 12,8 C 12,2 C 63 % 1014,2 hPa 0,0 l/m 2 min 0 min 0,0 UV-I 519 W/m 12,9 km/h (3 Bft)
18.04.2014 17:42 12,8 C 12,2 C 62 % 1014,2 hPa 0,0 l/m 2 min 0 min 0,0 UV-I 513 W/m 20,6 km/h (4 Bft)
18.04.2014 17:44 12,7 C 12,2 C 62 % 1014,2 hPa 0,0 l/m 0 min 0 min 0,0 UV-I 163 W/m 10,3 km/h (2 Bft)
18.04.2014 17:46 12,6 C 12,2 C 62 % 1014,3 hPa 0,0 l/m 0 min 0 min 0,0 UV-I 146 W/m 20,6 km/h (4 Bft)
18.04.2014 17:48 12,4 C 11,7 C 62 % 1014,4 hPa 0,0 l/m 0 min 0 min 0,0 UV-I 149 W/m 30,9 km/h (5 Bft)
18.04.2014 17:50 12,2 C 11,7 C 61 % 1014,4 hPa 0,0 l/m 0 min 0 min 0,0 UV-I 162 W/m 20,6 km/h (4 Bft)
18.04.2014 17:52 12,0 C 11,7 C 62 % 1014,3 hPa 0,0 l/m 0 min 0 min 0,0 UV-I 142 W/m 30,9 km/h (5 Bft)
18.04.2014 17:54 11,8 C 11,1 C 63 % 1014,3 hPa 0,0 l/m 0 min 0 min 0,0 UV-I 134 W/m 18,0 km/h (3 Bft)
18.04.2014 17:56 11,8 C 11,1 C 64 % 1014,3 hPa 0,0 l/m 0 min 0 min 0,0 UV-I 107 W/m 18,0 km/h (3 Bft)
18.04.2014 17:58 11,7 C 11,1 C 64 % 1014,2 hPa 0,0 l/m 0 min 0 min 0,0 UV-I 79 W/m 18,0 km/h (3 Bft)
18.04.2014 18:00 11,7 C 11,1 C 65 % 1014,3 hPa 0,0 l/m 0 min 0 min 0,0 UV-I 74 W/m 10,3 km/h (2 Bft)
18.04.2014 18:02 11,6 C 10,6 C 65 % 1014,2 hPa 0,0 l/m 0 min 0 min 0,0 UV-I 74 W/m 18,0 km/h (3 Bft)
18.04.2014 18:06 11,4 C 10,6 C 65 % 1014,2 hPa 0,0 l/m 2 min 0 min 0,0 UV-I 218 W/m 23,2 km/h (4 Bft)
18.04.2014 18:08 11,4 C 10,6 C 65 % 1014,3 hPa 0,0 l/m 2 min 0 min 0,0 UV-I 285 W/m 20,6 km/h (4 Bft)
18.04.2014 18:10 11,3 C 10,6 C 64 % 1014,2 hPa 0,0 l/m 0 min 0 min 0,0 UV-I 120 W/m 30,9 km/h (5 Bft)
18.04.2014 18:12 11,3 C 10,6 C 63 % 1014,3 hPa 0,0 l/m 0 min 0 min 0,0 UV-I 81 W/m 23,2 km/h (4 Bft)
18.04.2014 18:14 11,3 C 10,6 C 63 % 1014,2 hPa 0,0 l/m 0 min 0 min 0,0 UV-I 102 W/m 36,0 km/h (5 Bft)
18.04.2014 18:16 11,2 C 10,0 C 62 % 1014,3 hPa 0,0 l/m 0 min 0 min 0,0 UV-I 72 W/m 18,0 km/h (3 Bft)
18.04.2014 18:18 11,2 C 10,0 C 62 % 1014,3 hPa 0,0 l/m 0 min 0 min 0,0 UV-I 83 W/m 23,2 km/h (4 Bft)
18.04.2014 18:20 11,2 C 10,0 C 63 % 1014,4 hPa 0,0 l/m 0 min 0 min 0,0 UV-I 100 W/m 18,0 km/h (3 Bft)
18.04.2014 18:22 11,1 C 10,0 C 64 % 1014,4 hPa 0,0 l/m 0 min 0 min 0,0 UV-I 134 W/m 12,9 km/h (3 Bft)
18.04.2014 18:24 11,1 C 10,6 C 64 % 1014,5 hPa 0,0 l/m 0 min 0 min 0,0 UV-I 134 W/m 20,6 km/h (4 Bft)
18.04.2014 18:26 11,1 C 10,6 C 64 % 1014,5 hPa 0,0 l/m 2 min 0 min 0,0 UV-I 179 W/m 23,2 km/h (4 Bft)
18.04.2014 18:28 11,2 C 10,6 C 64 % 1014,5 hPa 0,0 l/m 0 min 0 min 0,0 UV-I 134 W/m 18,0 km/h (3 Bft)
18.04.2014 18:30 11,3 C 10,6 C 64 % 1014,4 hPa 0,0 l/m 0 min 0 min 0,0 UV-I 132 W/m 12,9 km/h (3 Bft)
18.04.2014 18:32 11,3 C 10,6 C 64 % 1014,4 hPa 0,0 l/m 0 min 0 min 0,0 UV-I 127 W/m 18,0 km/h (3 Bft)
18.04.2014 18:34 11,3 C 10,6 C 64 % 1014,4 hPa 0,0 l/m 0 min 0 min 0,0 UV-I 125 W/m 25,7 km/h (4 Bft)
18.04.2014 18:36 11,3 C 10,6 C 63 % 1014,4 hPa 0,0 l/m 0 min 0 min 0,0 UV-I 125 W/m 25,7 km/h (4 Bft)
18.04.2014 18:38 11,1 C 10,6 C 63 % 1014,4 hPa 0,0 l/m 0 min 0 min 0,0 UV-I 120 W/m 15,4 km/h (3 Bft)
18.04.2014 18:40 11,0 C 10,0 C 63 % 1014,4 hPa 0,0 l/m 0 min 0 min 0,0 UV-I 116 W/m 23,2 km/h (4 Bft)
18.04.2014 18:42 10,9 C 10,0 C 64 % 1014,4 hPa 0,0 l/m 0 min 0 min 0,0 UV-I 114 W/m 20,6 km/h (4 Bft)
18.04.2014 18:44 10,8 C 10,0 C 64 % 1014,4 hPa 0,0 l/m 0 min 0 min 0,0 UV-I 113 W/m 20,6 km/h (4 Bft)
18.04.2014 18:46 10,8 C 10,0 C 65 % 1014,4 hPa 0,0 l/m 0 min 0 min 0,0 UV-I 105 W/m 20,6 km/h (4 Bft)
18.04.2014 18:48 10,7 C 10,0 C 65 % 1014,4 hPa 0,0 l/m 0 min 0 min 0,0 UV-I 100 W/m 10,3 km/h (2 Bft)
18.04.2014 18:50 10,7 C 10,0 C 65 % 1014,4 hPa 0,0 l/m 0 min 0 min 0,0 UV-I 98 W/m 20,6 km/h (4 Bft)
18.04.2014 18:52 10,7 C 10,0 C 65 % 1014,4 hPa 0,0 l/m 0 min 0 min 0,0 UV-I 90 W/m 10,3 km/h (2 Bft)
18.04.2014 18:54 10,7 C 10,0 C 66 % 1014,4 hPa 0,0 l/m 0 min 0 min 0,0 UV-I 79 W/m 10,3 km/h (2 Bft)
18.04.2014 18:56 10,7 C 10,0 C 66 % 1014,4 hPa 0,0 l/m 0 min 0 min 0,0 UV-I 65 W/m 7,7 km/h (2 Bft)
18.04.2014 18:58 10,7 C 10,0 C 66 % 1014,4 hPa 0,0 l/m 0 min 0 min 0,0 UV-I 58 W/m 15,4 km/h (3 Bft)
18.04.2014 19:00 10,7 C 10,0 C 66 % 1014,4 hPa 0,0 l/m 0 min 0 min 0,0 UV-I 54 W/m 15,4 km/h (3 Bft)
18.04.2014 19:02 10,7 C 10,0 C 66 % 1014,4 hPa 0,0 l/m 0 min 0 min 0,0 UV-I 51 W/m 15,4 km/h (3 Bft)
18.04.2014 19:06 10,7 C 9,4 C 67 % 1014,3 hPa 0,0 l/m 0 min 0 min 0,0 UV-I 49 W/m 20,6 km/h (4 Bft)
18.04.2014 19:08 10,6 C 9,4 C 67 % 1014,3 hPa 0,0 l/m 0 min 0 min 0,0 UV-I 53 W/m 18,0 km/h (3 Bft)
18.04.2014 19:10 10,6 C 9,4 C 67 % 1014,4 hPa 0,0 l/m 0 min 0 min 0,0 UV-I 53 W/m 15,4 km/h (3 Bft)
18.04.2014 19:12 10,6 C 9,4 C 67 % 1014,4 hPa 0,0 l/m 0 min 0 min 0,0 UV-I 56 W/m 23,2 km/h (4 Bft)
18.04.2014 19:14 10,7 C 9,4 C 67 % 1014,3 hPa 0,0 l/m 0 min 0 min 0,0 UV-I 56 W/m 18,0 km/h (3 Bft)
18.04.2014 19:16 10,7 C 9,4 C 67 % 1014,3 hPa 0,0 l/m 0 min 0 min 0,0 UV-I 54 W/m 12,9 km/h (3 Bft)
18.04.2014 19:18 10,7 C 9,4 C 67 % 1014,3 hPa 0,0 l/m 0 min 0 min 0,0 UV-I 53 W/m 15,4 km/h (3 Bft)
18.04.2014 19:20 10,8 C 9,4 C 67 % 1014,3 hPa 0,0 l/m 0 min 0 min 0,0 UV-I 53 W/m 12,9 km/h (3 Bft)
18.04.2014 19:22 10,8 C 10,0 C 67 % 1014,4 hPa 0,0 l/m 0 min 0 min 0,0 UV-I 51 W/m 20,6 km/h (4 Bft)
18.04.2014 19:24 10,8 C 10,0 C 66 % 1014,3 hPa 0,0 l/m 0 min 0 min 0,0 UV-I 49 W/m 25,7 km/h (4 Bft)
18.04.2014 19:26 10,8 C 10,0 C 67 % 1014,2 hPa 0,0 l/m 0 min 0 min 0,0 UV-I 49 W/m 15,4 km/h (3 Bft)
18.04.2014 19:28 10,8 C 10,0 C 67 % 1014,3 hPa 0,0 l/m 0 min 0 min 0,0 UV-I 51 W/m 18,0 km/h (3 Bft)
18.04.2014 19:30 10,8 C 10,0 C 66 % 1014,3 hPa 0,0 l/m 0 min 0 min 0,0 UV-I 51 W/m 28,3 km/h (4 Bft)
18.04.2014 19:32 10,8 C 10,0 C 66 % 1014,3 hPa 0,0 l/m 0 min 0 min 0,0 UV-I 49 W/m 23,2 km/h (4 Bft)
18.04.2014 19:34 10,8 C 10,0 C 66 % 1014,3 hPa 0,0 l/m 0 min 0 min 0,0 UV-I 47 W/m 28,3 km/h (4 Bft)
18.04.2014 19:36 10,8 C 10,0 C 66 % 1014,3 hPa 0,0 l/m 0 min 0 min 0,0 UV-I 47 W/m 28,3 km/h (4 Bft)
18.04.2014 19:38 10,8 C 10,0 C 66 % 1014,3 hPa 0,0 l/m 0 min 0 min 0,0 UV-I 46 W/m 12,9 km/h (3 Bft)
18.04.2014 19:40 10,8 C 10,0 C 67 % 1014,3 hPa 0,0 l/m 0 min 0 min 0,0 UV-I 46 W/m 28,3 km/h (4 Bft)
18.04.2014 19:42 10,8 C 10,0 C 67 % 1014,4 hPa 0,0 l/m 0 min 0 min 0,0 UV-I 46 W/m 30,9 km/h (5 Bft)
18.04.2014 19:44 10,7 C 9,4 C 67 % 1014,3 hPa 0,0 l/m 0 min 0 min 0,0 UV-I 46 W/m 43,8 km/h (6 Bft)
18.04.2014 19:46 10,7 C 9,4 C 67 % 1014,4 hPa 0,0 l/m 0 min 0 min 0,0 UV-I 44 W/m 25,7 km/h (4 Bft)
18.04.2014 19:48 10,7 C 9,4 C 67 % 1014,4 hPa 0,0 l/m 0 min 0 min 0,0 UV-I 42 W/m 25,7 km/h (4 Bft)
18.04.2014 19:50 10,6 C 9,4 C 67 % 1014,5 hPa 0,0 l/m 0 min 0 min 0,0 UV-I 39 W/m 20,6 km/h (4 Bft)
18.04.2014 19:52 10,6 C 9,4 C 67 % 1014,5 hPa 0,0 l/m 0 min 0 min 0,0 UV-I 35 W/m 25,7 km/h (4 Bft)
18.04.2014 19:54 10,5 C 9,4 C 67 % 1014,5 hPa 0,0 l/m 0 min 0 min 0,0 UV-I 32 W/m 18,0 km/h (3 Bft)
18.04.2014 19:56 10,4 C 9,4 C 68 % 1014,5 hPa 0,0 l/m 0 min 0 min 0,0 UV-I 32 W/m 18,0 km/h (3 Bft)
18.04.2014 19:58 10,4 C 9,4 C 68 % 1014,5 hPa 0,0 l/m 0 min 0 min 0,0 UV-I 28 W/m 28,3 km/h (4 Bft)
18.04.2014 20:00 10,3 C 8,9 C 68 % 1014,6 hPa 0,0 l/m 0 min 0 min 0,0 UV-I 25 W/m 28,3 km/h (4 Bft)
18.04.2014 20:02 10,2 C 8,9 C 69 % 1014,6 hPa 0,0 l/m 0 min 0 min 0,0 UV-I 21 W/m 23,2 km/h (4 Bft)
18.04.2014 20:06 10,1 C 8,9 C 69 % 1014,5 hPa 0,0 l/m 0 min 0 min 0,0 UV-I 16 W/m 15,4 km/h (3 Bft)
18.04.2014 20:08 10,0 C 8,9 C 70 % 1014,6 hPa 0,0 l/m 0 min 0 min 0,0 UV-I 14 W/m 15,4 km/h (3 Bft)
18.04.2014 20:10 9,9 C 8,9 C 69 % 1014,6 hPa 0,0 l/m 0 min 0 min 0,0 UV-I 14 W/m 23,2 km/h (4 Bft)
18.04.2014 20:12 9,8 C 8,3 C 70 % 1014,6 hPa 0,0 l/m 0 min 0 min 0,0 UV-I 12 W/m 15,4 km/h (3 Bft)
18.04.2014 20:14 9,8 C 8,3 C 70 % 1014,7 hPa 0,0 l/m 0 min 0 min 0,0 UV-I 12 W/m 28,3 km/h (4 Bft)
18.04.2014 20:16 9,7 C 8,3 C 70 % 1014,6 hPa 0,0 l/m 0 min 0 min 0,0 UV-I 11 W/m 18,0 km/h (3 Bft)
18.04.2014 20:18 9,6 C 8,3 C 69 % 1014,7 hPa 0,0 l/m 0 min 0 min 0,0 UV-I 11 W/m 28,3 km/h (4 Bft)
18.04.2014 20:20 9,6 C 8,3 C 68 % 1014,7 hPa 0,0 l/m 0 min 0 min 0,0 UV-I 9 W/m 18,0 km/h (3 Bft)
18.04.2014 20:22 9,5 C 8,3 C 67 % 1014,7 hPa 0,0 l/m 0 min 0 min 0,0 UV-I 9 W/m 25,7 km/h (4 Bft)
18.04.2014 20:24 9,4 C 8,3 C 67 % 1014,7 hPa 0,0 l/m 0 min 0 min 0,0 UV-I 9 W/m 33,5 km/h (5 Bft)
18.04.2014 20:26 9,4 C 8,3 C 67 % 1014,7 hPa 0,0 l/m 0 min 0 min 0,0 UV-I 7 W/m 25,7 km/h (4 Bft)
18.04.2014 20:28 9,4 C 8,3 C 67 % 1014,8 hPa 0,0 l/m 0 min 0 min 0,0 UV-I 7 W/m 25,7 km/h (4 Bft)
18.04.2014 20:30 9,3 C 7,8 C 67 % 1014,8 hPa 0,0 l/m 0 min 0 min 0,0 UV-I 7 W/m 23,2 km/h (4 Bft)
18.04.2014 20:32 9,3 C 7,8 C 68 % 1014,8 hPa 0,0 l/m 0 min 0 min 0,0 UV-I 5 W/m 15,4 km/h (3 Bft)
18.04.2014 20:34 9,2 C 7,8 C 68 % 1014,8 hPa 0,0 l/m 0 min 0 min 0,0 UV-I 5 W/m 18,0 km/h (3 Bft)
18.04.2014 20:36 9,2 C 7,8 C 69 % 1014,9 hPa 0,0 l/m 0 min 0 min 0,0 UV-I 5 W/m 20,6 km/h (4 Bft)
18.04.2014 20:38 9,1 C 7,8 C 69 % 1014,9 hPa 0,0 l/m 0 min 0 min 0,0 UV-I 0 W/m 25,7 km/h (4 Bft)
18.04.2014 20:40 9,1 C 7,8 C 69 % 1014,9 hPa 0,0 l/m 0 min 0 min 0,0 UV-I 0 W/m 18,0 km/h (3 Bft)
18.04.2014 20:42 9,0 C 7,8 C 69 % 1015,0 hPa 0,0 l/m 0 min 0 min 0,0 UV-I 0 W/m 18,0 km/h (3 Bft)
18.04.2014 20:44 8,9 C 7,8 C 70 % 1015,0 hPa 0,0 l/m 0 min 0 min 0,0 UV-I 0 W/m 25,7 km/h (4 Bft)
18.04.2014 20:46 8,9 C 7,8 C 71 % 1015,0 hPa 0,0 l/m 0 min 0 min 0,0 UV-I 0 W/m 20,6 km/h (4 Bft)
18.04.2014 20:48 8,8 C 7,8 C 71 % 1015,1 hPa 0,0 l/m 0 min 0 min 0,0 UV-I 0 W/m 18,0 km/h (3 Bft)
18.04.2014 20:50 8,8 C 7,2 C 71 % 1015,1 hPa 0,0 l/m 0 min 0 min 0,0 UV-I 0 W/m 20,6 km/h (4 Bft)
18.04.2014 20:52 8,7 C 7,2 C 72 % 1015,1 hPa 0,0 l/m 0 min 0 min 0,0 UV-I 0 W/m 18,0 km/h (3 Bft)
18.04.2014 20:54 8,7 C 7,2 C 72 % 1015,1 hPa 0,0 l/m 0 min 0 min 0,0 UV-I 0 W/m 12,9 km/h (3 Bft)
18.04.2014 20:56 8,6 C 7,2 C 72 % 1015,1 hPa 0,0 l/m 0 min 0 min 0,0 UV-I 0 W/m 15,4 km/h (3 Bft)
18.04.2014 20:58 8,6 C 7,2 C 73 % 1015,2 hPa 0,0 l/m 0 min 0 min 0,0 UV-I 0 W/m 15,4 km/h (3 Bft)
18.04.2014 21:00 8,5 C 7,2 C 73 % 1015,3 hPa 0,0 l/m 0 min 0 min 0,0 UV-I 0 W/m 10,3 km/h (2 Bft)
18.04.2014 21:02 8,4 C 7,2 C 74 % 1015,3 hPa 0,0 l/m 0 min 0 min 0,0 UV-I 0 W/m 18,0 km/h (3 Bft)
18.04.2014 21:06 8,3 C 7,2 C 74 % 1015,3 hPa 0,0 l/m 0 min 0 min 0,0 UV-I 0 W/m 15,4 km/h (3 Bft)
18.04.2014 21:08 8,3 C 7,2 C 75 % 1015,3 hPa 0,0 l/m 0 min 0 min 0,0 UV-I 0 W/m 15,4 km/h (3 Bft)
18.04.2014 21:10 8,2 C 7,2 C 75 % 1015,3 hPa 0,0 l/m 0 min 0 min 0,0 UV-I 0 W/m 18,0 km/h (3 Bft)
18.04.2014 21:12 8,2 C 7,2 C 75 % 1015,2 hPa 0,0 l/m 0 min 0 min 0,0 UV-I 0 W/m 15,4 km/h (3 Bft)
18.04.2014 21:14 8,2 C 6,7 C 75 % 1015,3 hPa 0,0 l/m 0 min 0 min 0,0 UV-I 0 W/m 18,0 km/h (3 Bft)
18.04.2014 21:16 8,1 C 6,7 C 76 % 1015,3 hPa 0,0 l/m 0 min 0 min 0,0 UV-I 0 W/m 12,9 km/h (3 Bft)
18.04.2014 21:18 8,1 C 6,7 C 76 % 1015,4 hPa 0,0 l/m 0 min 0 min 0,0 UV-I 0 W/m 12,9 km/h (3 Bft)
18.04.2014 21:20 8,0 C 6,7 C 76 % 1015,4 hPa 0,0 l/m 0 min 0 min 0,0 UV-I 0 W/m 7,7 km/h (2 Bft)
18.04.2014 21:22 7,9 C 6,7 C 76 % 1015,4 hPa 0,0 l/m 0 min 0 min 0,0 UV-I 0 W/m 12,9 km/h (3 Bft)
18.04.2014 21:24 7,9 C 6,7 C 77 % 1015,4 hPa 0,0 l/m 0 min 0 min 0,0 UV-I 0 W/m 10,3 km/h (2 Bft)
18.04.2014 21:26 7,9 C 6,7 C 77 % 1015,4 hPa 0,0 l/m 0 min 0 min 0,0 UV-I 0 W/m 7,7 km/h (2 Bft)
18.04.2014 21:28 7,8 C 6,7 C 77 % 1015,4 hPa 0,0 l/m 0 min 0 min 0,0 UV-I 0 W/m 0,0 km/h (0 Bft)
18.04.2014 21:30 7,8 C 6,7 C 77 % 1015,4 hPa 0,0 l/m 0 min 0 min 0,0 UV-I 0 W/m 10,3 km/h (2 Bft)
18.04.2014 21:32 7,7 C 6,7 C 77 % 1015,4 hPa 0,0 l/m 0 min 0 min 0,0 UV-I 0 W/m 2,6 km/h (1 Bft)
18.04.2014 21:34 7,7 C 6,1 C 77 % 1015,4 hPa 0,0 l/m 0 min 0 min 0,0 UV-I 0 W/m 5,1 km/h (1 Bft)
18.04.2014 21:36 7,7 C 6,1 C 78 % 1015,4 hPa 0,0 l/m 0 min 0 min 0,0 UV-I 0 W/m 0,0 km/h (0 Bft)
18.04.2014 21:38 7,6 C 6,1 C 78 % 1015,4 hPa 0,0 l/m 0 min 0 min 0,0 UV-I 0 W/m 0,0 km/h (0 Bft)
18.04.2014 21:40 7,5 C 6,1 C 78 % 1015,5 hPa 0,0 l/m 0 min 0 min 0,0 UV-I 0 W/m 0,0 km/h (0 Bft)
18.04.2014 21:42 7,4 C 6,1 C 78 % 1015,4 hPa 0,0 l/m 0 min 0 min 0,0 UV-I 0 W/m 0,0 km/h (0 Bft)
18.04.2014 21:44 7,3 C 6,1 C 79 % 1015,4 hPa 0,0 l/m 0 min 0 min 0,0 UV-I 0 W/m 0,0 km/h (0 Bft)
18.04.2014 21:46 7,2 C 5,6 C 79 % 1015,4 hPa 0,0 l/m 0 min 0 min 0,0 UV-I 0 W/m 0,0 km/h (0 Bft)
18.04.2014 21:48 7,2 C 5,6 C 79 % 1015,4 hPa 0,0 l/m 0 min 0 min 0,0 UV-I 0 W/m 0,0 km/h (0 Bft)
18.04.2014 21:50 7,2 C 5,6 C 80 % 1015,4 hPa 0,0 l/m 0 min 0 min 0,0 UV-I 0 W/m 0,0 km/h (0 Bft)
18.04.2014 21:52 7,1 C 5,6 C 80 % 1015,3 hPa 0,0 l/m 0 min 0 min 0,0 UV-I 0 W/m 0,0 km/h (0 Bft)
18.04.2014 21:54 7,1 C 5,6 C 80 % 1015,4 hPa 0,0 l/m 0 min 0 min 0,0 UV-I 0 W/m 0,0 km/h (0 Bft)
18.04.2014 21:56 7,0 C 5,6 C 80 % 1015,4 hPa 0,0 l/m 0 min 0 min 0,0 UV-I 0 W/m 0,0 km/h (0 Bft)
18.04.2014 21:58 6,9 C 5,6 C 80 % 1015,4 hPa 0,0 l/m 0 min 0 min 0,0 UV-I 0 W/m 0,0 km/h (0 Bft)
18.04.2014 22:00 6,8 C 5,0 C 80 % 1015,4 hPa 0,0 l/m 0 min 0 min 0,0 UV-I 0 W/m 0,0 km/h (0 Bft)
18.04.2014 22:02 6,7 C 5,0 C 81 % 1015,4 hPa 0,0 l/m 0 min 0 min 0,0 UV-I 0 W/m 0,0 km/h (0 Bft)
18.04.2014 22:04 6,7 C 5,0 C 81 % 1015,4 hPa 0,0 l/m 0 min 0 min 0,0 UV-I 0 W/m 0,0 km/h (0 Bft)
18.04.2014 22:06 6,7 C 5,0 C 81 % 1015,4 hPa 0,0 l/m 0 min 0 min 0,0 UV-I 0 W/m 0,0 km/h (0 Bft)
18.04.2014 22:08 6,6 C 5,0 C 81 % 1015,4 hPa 0,0 l/m 0 min 0 min 0,0 UV-I 0 W/m 0,0 km/h (0 Bft)
18.04.2014 22:10 6,5 C 5,0 C 82 % 1015,5 hPa 0,0 l/m 0 min 0 min 0,0 UV-I 0 W/m 0,0 km/h (0 Bft)
18.04.2014 22:12 6,4 C 5,0 C 82 % 1015,4 hPa 0,0 l/m 0 min 0 min 0,0 UV-I 0 W/m 0,0 km/h (0 Bft)
18.04.2014 22:14 6,4 C 4,4 C 82 % 1015,5 hPa 0,0 l/m 0 min 0 min 0,0 UV-I 0 W/m 0,0 km/h (0 Bft)
18.04.2014 22:16 6,4 C 4,4 C 82 % 1015,5 hPa 0,0 l/m 0 min 0 min 0,0 UV-I 0 W/m 0,0 km/h (0 Bft)
18.04.2014 22:18 6,3 C 4,4 C 83 % 1015,5 hPa 0,0 l/m 0 min 0 min 0,0 UV-I 0 W/m 0,0 km/h (0 Bft)
18.04.2014 22:20 6,3 C 4,4 C 83 % 1015,5 hPa 0,0 l/m 0 min 0 min 0,0 UV-I 0 W/m 0,0 km/h (0 Bft)
18.04.2014 22:22 6,3 C 4,4 C 83 % 1015,6 hPa 0,0 l/m 0 min 0 min 0,0 UV-I 0 W/m 0,0 km/h (0 Bft)
18.04.2014 22:24 6,2 C 4,4 C 83 % 1015,6 hPa 0,0 l/m 0 min 0 min 0,0 UV-I 0 W/m 0,0 km/h (0 Bft)
18.04.2014 22:26 6,2 C 4,4 C 83 % 1015,6 hPa 0,0 l/m 0 min 0 min 0,0 UV-I 0 W/m 0,0 km/h (0 Bft)
18.04.2014 22:28 6,1 C 4,4 C 83 % 1015,6 hPa 0,0 l/m 0 min 0 min 0,0 UV-I 0 W/m 0,0 km/h (0 Bft)
18.04.2014 22:30 6,1 C 3,9 C 84 % 1015,6 hPa 0,0 l/m 0 min 0 min 0,0 UV-I 0 W/m 0,0 km/h (0 Bft)
18.04.2014 22:32 6,0 C 3,9 C 84 % 1015,6 hPa 0,0 l/m 0 min 0 min 0,0 UV-I 0 W/m 0,0 km/h (0 Bft)
18.04.2014 22:34 5,9 C 3,9 C 84 % 1015,5 hPa 0,0 l/m 0 min 0 min 0,0 UV-I 0 W/m 0,0 km/h (0 Bft)
18.04.2014 22:36 5,9 C 3,9 C 84 % 1015,5 hPa 0,0 l/m 0 min 0 min 0,0 UV-I 0 W/m 0,0 km/h (0 Bft)
18.04.2014 22:38 5,9 C 3,9 C 84 % 1015,6 hPa 0,0 l/m 0 min 0 min 0,0 UV-I 0 W/m 0,0 km/h (0 Bft)
18.04.2014 22:40 5,8 C 3,9 C 84 % 1015,5 hPa 0,0 l/m 0 min 0 min 0,0 UV-I 0 W/m 0,0 km/h (0 Bft)
18.04.2014 22:42 5,8 C 3,9 C 84 % 1015,6 hPa 0,0 l/m 0 min 0 min 0,0 UV-I 0 W/m 0,0 km/h (0 Bft)
18.04.2014 22:44 5,8 C 3,9 C 84 % 1015,6 hPa 0,0 l/m 0 min 0 min 0,0 UV-I 0 W/m 0,0 km/h (0 Bft)
18.04.2014 22:46 5,7 C 3,9 C 84 % 1015,5 hPa 0,0 l/m 0 min 0 min 0,0 UV-I 0 W/m 0,0 km/h (0 Bft)
18.04.2014 22:48 5,6 C 3,9 C 84 % 1015,6 hPa 0,0 l/m 0 min 0 min 0,0 UV-I 0 W/m 0,0 km/h (0 Bft)
18.04.2014 22:50 5,6 C 3,9 C 85 % 1015,6 hPa 0,0 l/m 0 min 0 min 0,0 UV-I 0 W/m 0,0 km/h (0 Bft)
18.04.2014 22:52 5,5 C 3,3 C 85 % 1015,5 hPa 0,0 l/m 0 min 0 min 0,0 UV-I 0 W/m 0,0 km/h (0 Bft)
18.04.2014 22:54 5,5 C 3,9 C 85 % 1015,5 hPa 0,0 l/m 0 min 0 min 0,0 UV-I 0 W/m 0,0 km/h (0 Bft)
18.04.2014 22:56 5,5 C 3,3 C 85 % 1015,6 hPa 0,0 l/m 0 min 0 min 0,0 UV-I 0 W/m 0,0 km/h (0 Bft)
18.04.2014 22:58 5,5 C 3,3 C 85 % 1015,5 hPa 0,0 l/m 0 min 0 min 0,0 UV-I 0 W/m 0,0 km/h (0 Bft)
18.04.2014 23:00 5,5 C 3,3 C 85 % 1015,6 hPa 0,0 l/m 0 min 0 min 0,0 UV-I 0 W/m 0,0 km/h (0 Bft)
18.04.2014 23:02 5,5 C 3,3 C 85 % 1015,5 hPa 0,0 l/m 0 min 0 min 0,0 UV-I 0 W/m 0,0 km/h (0 Bft)
18.04.2014 23:04 5,5 C 3,9 C 85 % 1015,6 hPa 0,0 l/m 0 min 0 min 0,0 UV-I 0 W/m 0,0 km/h (0 Bft)
18.04.2014 23:06 5,6 C 3,9 C 85 % 1015,6 hPa 0,0 l/m 0 min 0 min 0,0 UV-I 0 W/m 0,0 km/h (0 Bft)
18.04.2014 23:08 5,6 C 3,9 C 85 % 1015,6 hPa 0,0 l/m 0 min 0 min 0,0 UV-I 0 W/m 0,0 km/h (0 Bft)
18.04.2014 23:10 5,6 C 3,9 C 85 % 1015,6 hPa 0,0 l/m 0 min 0 min 0,0 UV-I 0 W/m 0,0 km/h (0 Bft)
18.04.2014 23:12 5,6 C 3,9 C 85 % 1015,7 hPa 0,0 l/m 0 min 0 min 0,0 UV-I 0 W/m 0,0 km/h (0 Bft)
18.04.2014 23:14 5,6 C 3,9 C 85 % 1015,6 hPa 0,0 l/m 0 min 0 min 0,0 UV-I 0 W/m 0,0 km/h (0 Bft)
18.04.2014 23:16 5,6 C 3,9 C 85 % 1015,6 hPa 0,0 l/m 0 min 0 min 0,0 UV-I 0 W/m 0,0 km/h (0 Bft)
18.04.2014 23:18 5,6 C 3,9 C 85 % 1015,6 hPa 0,0 l/m 0 min 0 min 0,0 UV-I 0 W/m 0,0 km/h (0 Bft)
18.04.2014 23:20 5,5 C 3,9 C 85 % 1015,6 hPa 0,0 l/m 0 min 0 min 0,0 UV-I 0 W/m 0,0 km/h (0 Bft)
18.04.2014 23:22 5,4 C 3,9 C 85 % 1015,6 hPa 0,0 l/m 0 min 0 min 0,0 UV-I 0 W/m 0,0 km/h (0 Bft)
18.04.2014 23:24 5,4 C 3,9 C 85 % 1015,6 hPa 0,0 l/m 0 min 0 min 0,0 UV-I 0 W/m 0,0 km/h (0 Bft)
18.04.2014 23:26 5,3 C 3,3 C 85 % 1015,7 hPa 0,0 l/m 0 min 0 min 0,0 UV-I 0 W/m 0,0 km/h (0 Bft)
18.04.2014 23:28 5,3 C 3,3 C 85 % 1015,7 hPa 0,0 l/m 0 min 0 min 0,0 UV-I 0 W/m 0,0 km/h (0 Bft)
18.04.2014 23:30 5,3 C 3,3 C 86 % 1015,6 hPa 0,0 l/m 0 min 0 min 0,0 UV-I 0 W/m 0,0 km/h (0 Bft)
18.04.2014 23:32 5,2 C 3,3 C 86 % 1015,6 hPa 0,0 l/m 0 min 0 min 0,0 UV-I 0 W/m 0,0 km/h (0 Bft)
18.04.2014 23:34 5,2 C 3,3 C 86 % 1015,6 hPa 0,0 l/m 0 min 0 min 0,0 UV-I 0 W/m 0,0 km/h (0 Bft)
18.04.2014 23:36 5,2 C 3,3 C 86 % 1015,7 hPa 0,0 l/m 0 min 0 min 0,0 UV-I 0 W/m 0,0 km/h (0 Bft)
18.04.2014 23:38 5,2 C 3,3 C 86 % 1015,7 hPa 0,0 l/m 0 min 0 min 0,0 UV-I 0 W/m 0,0 km/h (0 Bft)
18.04.2014 23:40 5,1 C 3,3 C 86 % 1015,7 hPa 0,0 l/m 0 min 0 min 0,0 UV-I 0 W/m 0,0 km/h (0 Bft)
18.04.2014 23:42 5,1 C 3,3 C 86 % 1015,7 hPa 0,0 l/m 0 min 0 min 0,0 UV-I 0 W/m 0,0 km/h (0 Bft)
18.04.2014 23:44 5,1 C 3,3 C 87 % 1015,7 hPa 0,0 l/m 0 min 0 min 0,0 UV-I 0 W/m 0,0 km/h (0 Bft)
18.04.2014 23:46 5,2 C 3,3 C 87 % 1015,6 hPa 0,0 l/m 0 min 0 min 0,0 UV-I 0 W/m 0,0 km/h (0 Bft)
18.04.2014 23:48 5,2 C 3,9 C 87 % 1015,7 hPa 0,0 l/m 0 min 0 min 0,0 UV-I 0 W/m 0,0 km/h (0 Bft)
18.04.2014 23:50 5,3 C 3,9 C 87 % 1015,8 hPa 0,0 l/m 0 min 0 min 0,0 UV-I 0 W/m 0,0 km/h (0 Bft)
18.04.2014 23:52 5,4 C 3,9 C 87 % 1015,7 hPa 0,0 l/m 0 min 0 min 0,0 UV-I 0 W/m 0,0 km/h (0 Bft)
18.04.2014 23:54 5,4 C 3,9 C 87 % 1015,7 hPa 0,0 l/m 0 min 0 min 0,0 UV-I 0 W/m 0,0 km/h (0 Bft)
18.04.2014 23:56 5,4 C 4,4 C 87 % 1015,7 hPa 0,0 l/m 0 min 0 min 0,0 UV-I 0 W/m 0,0 km/h (0 Bft)
18.04.2014 23:58 5,4 C 4,4 C 87 % 1015,7 hPa 0,0 l/m 0 min 0 min 0,0 UV-I 0 W/m 0,0 km/h (0 Bft)
_ Min-Zeit 06:50 06:42 15:24 03:18 - - - - - 00:06
Minimum _ 4,9 C 3,3 C 50 % 1012,4 hPa - - - - - 0,0 km/h (0 Bft)
_ Max-Zeit 15:40 15:38 03:06 23:50 01:04 08:24 00:06 14:12 12:16 19:44
Maximum _ 13,9 C 13,9 C 96 % 1015,8 hPa 0,2 l/m 2 min 2 min 3,1 UV-I 1051 W/m 43,8 km/h
N-NW (6 Bft)
Durchschnitt _ 9,1 C 8,1 C 78 % 1014,1 hPa #0,8 l/m #4:22 h #2:46 h 1,5 UV-I 306 W/m 11,9 km/h (2 Bft)
© 2014 W. Hausmann